GFSNIL_sfc_wetblb_000.txt.gz
Wetbulb
63.68 62.41 62.11 62.72 62.91 59.69 60.89 62.99 63.34 62.98 63.08 63.31 63.44 64.65 64.75 63.82 62.88 63.62 63.19 62.38 62.19 61.59
63.47 63.97 64.70 64.42 62.34 60.84 62.48 63.43 63.05 63.55 63.28 63.56 64.67 63.86 63.97 63.86 63.82 62.96 62.55 62.54 62.62 61.45
64.58 64.35 64.05 63.16 62.45 62.99 62.39 62.93 62.91 63.15 63.46 63.57 63.87 63.66 63.07 62.37 62.35 62.34 61.92 62.36 62.55 61.50
65.74 64.93 63.80 63.33 62.93 63.10 62.89 63.71 64.61 64.55 64.15 63.33 62.89 63.56 63.42 63.07 62.85 62.26 61.94 61.95 61.72 61.45
66.40 65.15 64.04 63.58 63.36 63.39 63.36 62.94 62.61 62.74 62.61 62.77 63.36 63.69 63.02 62.78 62.86 62.02 61.43 61.36 60.61 60.66
63.41 63.11 63.36 63.42 63.13 63.11 62.61 62.14 62.23 61.29 60.71 61.89 62.31 62.27 62.90 62.76 62.96 62.36 62.02 61.65 60.22 59.88
62.36 62.27 62.91 63.35 62.96 62.82 62.74 62.00 61.61 61.56 62.41 62.64 62.28 62.32 62.46 62.77 62.61 61.96 61.53 60.86 60.60 60.72
64.32 63.12 62.67 63.19 63.12 62.91 62.83 62.46 62.13 62.66 62.70 62.48 62.43 63.69 62.92 62.89 61.95 60.92 60.37 61.01 60.98 60.70
64.97 63.92 63.60 64.29 63.71 62.92 62.64 62.07 62.18 62.53 62.42 61.19 62.95 62.30 62.29 61.13 58.91 58.78 58.78 58.32 58.59 59.06
65.14 64.43 64.59 64.65 63.33 62.99 62.74 61.78 61.98 62.31 60.92 61.50 61.65 60.64 59.88 62.75 58.22 56.80 56.54 56.67 57.20 58.51
65.63 64.92 64.84 63.78 63.24 63.16 62.91 62.76 62.38 61.07 61.98 61.85 61.22 60.23 59.03 60.85 57.62 57.00 56.83 57.65 57.71 56.92
65.57 64.99 63.91 63.02 62.89 63.71 62.85 62.01 62.06 62.67 62.46 60.63 61.06 58.78 57.61 58.08 57.12 56.58 55.96 55.05 56.60 57.16
65.40 64.59 63.73 63.67 63.93 64.74 63.49 62.63 63.93 62.97 62.35 59.69 60.51 57.22 55.78 56.50 56.32 53.97 53.20 55.09 55.79 56.61
65.64 65.08 64.71 64.89 64.90 64.06 62.94 60.47 59.98 60.76 60.60 59.83 58.77 57.91 54.95 54.33 53.99 54.43 54.32 52.97 52.12 53.18

GFSNIL_sfc_wetblb_003.txt.gz
Wetbulb
61.88 61.44 61.89 61.50 61.22 60.05 60.85 61.89 61.91 61.92 61.59 60.58 61.70 63.21 63.47 63.08 62.14 62.01 62.65 61.48 60.88 60.48
62.24 61.48 61.01 61.88 61.80 58.84 59.58 62.20 61.98 61.57 61.17 61.49 62.87 63.38 62.51 62.28 62.40 62.63 62.28 61.66 61.65 61.30
62.97 62.76 63.10 62.89 61.03 59.99 60.94 61.51 61.44 61.14 61.55 61.37 62.38 62.64 61.62 61.08 61.62 61.55 61.41 61.81 61.63 61.71
63.27 63.87 63.32 62.44 61.44 61.23 61.05 60.68 61.25 61.59 61.83 62.35 61.83 61.29 61.38 61.70 62.16 61.28 61.08 61.38 61.44 61.55
64.31 64.02 62.92 62.02 61.92 61.59 60.90 61.20 62.31 62.40 62.35 61.50 61.17 61.47 62.09 61.96 62.07 61.59 60.91 60.98 60.58 60.73
64.68 64.42 63.10 63.12 62.37 61.92 61.48 61.33 60.55 60.30 59.31 58.60 59.11 60.40 60.85 61.39 61.46 61.16 61.57 61.35 60.17 59.87
65.50 65.36 64.87 64.27 63.04 61.88 61.28 60.25 59.74 59.82 59.55 59.39 60.08 60.66 60.55 60.71 60.66 61.15 61.50 61.07 59.91 59.39
65.48 65.13 64.73 63.99 63.03 62.15 61.75 61.97 60.25 60.10 59.67 60.27 61.20 61.83 60.62 61.02 61.62 61.08 60.28 59.87 59.58 59.80
64.59 63.83 63.19 63.16 62.64 61.64 62.62 61.80 60.35 59.97 60.14 60.27 61.61 61.25 62.12 62.75 59.55 58.86 58.08 56.99 56.29 56.81
65.44 63.84 62.85 63.08 62.03 61.92 62.13 61.48 59.97 60.03 60.25 60.17 59.87 59.73 59.87 62.55 58.18 56.54 55.62 54.51 55.20 56.61
65.43 64.48 63.38 61.64 61.97 62.57 62.32 61.48 60.73 60.41 60.27 59.43 60.58 58.85 58.30 60.80 59.13 56.59 55.35 55.85 56.17 54.59
66.01 64.64 63.12 62.89 63.53 63.67 61.74 60.98 61.31 60.56 60.48 60.45 60.21 58.15 57.47 57.94 57.50 55.99 55.42 54.06 53.96 55.14
66.09 64.88 63.40 63.71 63.77 63.69 62.71 61.89 61.58 61.62 59.68 60.26 60.44 57.35 55.76 55.58 56.10 54.08 52.83 53.43 53.87 54.74
63.72 63.81 64.11 62.94 62.11 62.29 63.18 61.81 61.90 62.58 62.02 61.63 59.61 58.89 54.43 53.91 54.40 53.48 53.46 52.27 50.73 51.53

GFSNIL_sfc_wetblb_006.txt.gz
Wetbulb
68.96 65.16 64.83 64.68 63.51 62.85 63.22 64.54 65.39 64.70 64.94 63.17 63.83 65.10 66.15 65.27 65.17 65.08 65.50 64.88 63.86 64.07
66.50 63.75 63.66 64.01 63.62 63.11 63.38 63.84 64.30 64.03 63.99 63.35 63.66 65.75 65.68 64.95 64.96 65.07 65.19 65.10 64.46 63.79
65.20 63.42 62.87 63.14 63.06 61.95 62.07 63.31 63.81 63.86 63.41 63.74 63.76 65.00 64.88 64.17 64.49 64.70 64.40 64.26 64.19 64.36
63.59 63.38 63.19 63.35 63.68 62.55 62.07 62.66 63.25 63.27 63.22 63.70 63.79 64.45 63.82 63.86 64.26 64.21 64.43 64.43 64.10 64.25
63.86 63.79 63.59 63.49 63.66 63.33 62.74 62.63 63.05 63.38 63.73 64.19 64.41 64.28 63.51 63.73 64.90 64.39 64.04 64.26 63.95 63.88
63.83 64.26 64.08 63.99 63.69 63.25 62.55 62.35 62.70 63.62 63.53 63.38 63.05 62.39 62.63 63.77 63.93 63.75 63.77 63.95 63.53 63.31
64.28 64.41 64.70 64.50 63.84 63.31 63.09 62.70 62.57 63.09 62.72 62.33 61.69 62.19 62.97 63.44 63.29 63.05 63.31 63.91 63.80 63.00
65.71 65.47 64.94 64.63 64.57 64.17 63.01 63.11 62.87 62.44 62.24 62.41 62.21 62.41 63.19 63.44 63.14 63.38 63.64 63.88 63.05 62.44
66.37 65.93 65.54 65.50 65.36 63.88 63.16 62.59 62.78 61.83 62.35 62.21 62.63 61.11 61.81 63.85 63.44 63.75 63.05 62.11 61.57 60.44
66.42 65.30 64.12 64.55 64.97 63.72 62.85 62.52 62.48 62.48 62.65 62.44 63.33 59.43 59.73 62.09 63.62 61.91 60.76 60.50 60.20 59.77
66.10 65.14 64.15 63.41 63.12 64.19 62.80 62.17 62.37 62.48 62.72 62.52 62.76 58.57 58.38 60.73 63.42 62.28 61.06 59.85 59.25 59.23
66.43 65.36 65.23 64.69 63.23 63.60 63.13 62.88 63.57 63.41 62.93 62.22 62.86 58.16 57.42 59.32 62.10 61.35 60.65 59.45 57.95 57.56
67.30 65.47 63.80 64.51 64.25 63.46 64.00 63.45 64.52 63.49 62.44 60.43 62.03 57.75 57.31 57.99 61.22 59.80 58.01 57.41 58.20 56.14
67.37 66.45 65.34 63.82 63.26 62.60 63.56 63.49 62.82 61.08 60.02 62.10 62.21 62.01 56.59 54.24 59.26 58.23 57.34 56.66 56.40 56.06

GFSNIL_sfc_wetblb_009.txt.gz
Wetbulb
76.61 75.60 74.80 74.06 72.22 71.78 71.94 71.31 71.25 71.02 71.32 71.84 70.53 69.90 70.58 69.84 69.82 70.08 68.96 69.63 69.60 67.55
76.23 75.64 74.57 73.64 72.35 71.97 72.30 70.34 70.78 70.85 70.89 70.08 68.54 69.54 70.68 68.73 69.39 69.78 69.69 69.44 69.83 68.71
75.67 75.38 75.23 73.44 70.95 70.97 71.06 70.46 70.43 70.40 69.88 69.10 68.70 69.03 69.98 68.96 69.28 69.00 68.47 68.44 69.04 69.09
74.96 74.11 74.40 72.57 69.57 69.05 70.31 69.94 69.94 69.78 69.02 68.87 68.51 68.95 69.13 69.15 68.76 68.13 68.61 69.42 68.92 68.95
74.25 73.65 70.83 71.74 69.22 70.65 66.23 69.47 69.29 69.27 68.98 68.84 68.69 69.11 69.09 68.35 67.50 67.81 67.87 68.21 68.55 68.32
72.36 71.38 72.59 68.56 68.51 68.34 68.26 68.79 67.98 68.46 68.40 68.43 68.73 69.17 69.47 68.74 67.75 68.10 68.14 68.11 68.02 67.82
71.96 72.37 69.43 68.29 69.64 68.46 67.10 68.23 68.20 68.02 68.74 68.72 69.03 68.73 68.10 67.27 67.60 68.05 67.86 68.30 68.28 68.21
72.43 71.93 72.08 69.70 66.70 64.84 65.47 65.81 66.33 67.09 67.42 68.09 67.56 66.86 67.12 67.55 67.93 68.09 67.94 68.12 68.46 68.47
72.93 71.55 70.76 68.94 67.52 65.07 64.62 64.79 65.43 65.11 65.76 66.78 66.24 62.15 62.01 65.76 67.60 68.25 67.84 67.30 68.18 67.84
72.55 70.88 70.02 68.93 68.31 66.86 65.58 64.74 64.94 64.69 64.65 67.43 68.01 60.88 60.51 62.68 66.79 67.52 67.40 67.65 67.22 65.99
72.16 70.71 69.66 69.32 68.74 67.44 65.49 67.21 64.53 65.55 67.12 68.34 67.88 59.61 58.56 61.21 66.25 67.07 67.71 67.27 66.59 65.58
71.94 70.26 69.71 69.22 67.43 68.82 66.97 66.32 66.99 66.65 66.80 67.11 66.97 58.57 57.58 61.32 64.28 64.91 65.33 67.02 65.41 63.97
71.84 70.98 69.61 68.49 67.08 68.03 67.37 65.96 66.40 66.44 67.87 65.09 68.29 57.33 56.29 60.34 63.24 62.34 63.19 64.88 62.85 57.32
71.44 70.83 70.57 68.04 67.91 67.36 66.95 64.54 64.69 66.37 67.25 66.00 65.30 64.75 55.04 55.18 65.47 62.32 62.23 62.98 62.08 62.28

GFSNIL_sfc_wetblb_012.txt.gz
Wetbulb
78.83 77.33 76.73 77.05 73.87 72.62 71.54 71.88 74.02 74.48 72.74 72.44 72.80 72.83 71.48 70.19 69.97 70.71 69.71 70.21 70.13 67.75
78.50 78.10 77.31 77.75 76.64 74.26 74.63 72.24 73.79 73.28 72.42 72.03 72.73 71.45 71.34 69.54 70.28 70.38 70.33 69.67 69.96 68.94
77.59 78.11 78.15 77.80 76.48 75.99 74.29 73.92 73.32 72.81 71.33 71.91 71.64 70.84 71.25 70.15 70.50 70.15 68.43 67.63 68.83 69.16
77.17 77.44 77.85 77.58 77.06 76.06 74.91 74.00 73.03 72.60 71.33 71.48 70.25 70.58 70.73 70.29 69.22 69.03 69.14 68.77 69.07 69.48
77.58 77.56 77.06 77.71 76.84 76.42 74.44 73.33 73.13 72.31 71.55 70.59 70.24 70.18 70.13 68.90 68.21 67.95 67.57 68.23 68.90 68.92
76.86 76.64 77.29 77.04 76.65 73.11 73.63 71.37 71.21 71.03 69.74 69.90 69.89 69.58 69.95 70.06 69.27 68.54 68.29 68.81 68.65 68.64
76.73 76.59 76.28 76.87 75.03 72.26 69.66 70.25 68.20 70.08 69.29 69.32 69.94 69.86 69.33 69.37 69.39 68.48 68.36 69.04 69.27 69.14
77.59 77.18 76.34 76.91 74.41 72.37 70.51 70.14 68.86 67.56 67.97 68.47 68.95 68.10 69.91 69.18 68.05 68.00 68.41 69.10 69.26 69.48
78.04 77.15 75.87 76.62 73.74 71.50 69.42 69.38 66.96 65.48 64.65 65.48 66.97 63.82 63.21 66.90 67.90 68.30 68.65 68.53 69.27 69.62
77.65 76.45 75.54 75.54 73.15 71.41 70.27 69.00 66.33 64.79 64.96 65.85 66.95 61.72 61.39 63.26 66.90 67.78 68.54 69.20 69.82 68.61
76.75 75.67 74.56 73.16 72.11 71.87 70.08 68.20 68.35 67.13 67.05 66.98 66.74 61.50 60.17 62.38 67.34 67.92 69.02 69.50 69.51 68.68
76.06 75.12 74.01 71.83 69.90 70.37 69.59 67.83 66.86 67.01 68.24 67.84 67.93 58.96 58.21 61.37 67.57 67.40 68.27 68.73 67.56 67.10
76.23 75.20 72.82 72.48 71.57 69.77 67.95 66.88 66.18 68.01 68.27 65.70 67.38 58.97 56.34 59.15 65.91 67.55 64.34 65.84 68.51 60.10
76.23 74.93 73.37 73.01 71.25 68.93 67.19 66.76 68.18 68.94 68.69 67.02 66.48 66.23 55.78 55.66 66.20 65.41 64.60 65.88 66.06 64.07

GFSNIL_sfc_wetblb_015.txt.gz
Wetbulb
81.04 77.24 76.45 77.71 75.29 73.06 72.72 73.88 78.10 75.41 74.49 72.90 73.30 73.13 73.38 70.89 70.24 72.08 69.80 69.88 70.53 68.25
80.53 80.07 77.22 78.81 78.71 75.52 76.43 73.69 74.71 75.36 73.75 72.74 72.90 73.07 73.19 69.96 71.35 71.22 71.09 70.77 70.57 68.82
79.89 80.74 80.40 80.68 79.82 77.79 77.51 76.74 76.57 74.69 73.59 72.99 72.72 72.57 72.62 71.87 71.73 71.08 69.78 68.69 70.42 70.27
78.81 79.38 80.28 79.88 79.53 79.34 76.77 77.41 76.00 75.47 73.32 72.32 72.40 71.53 71.50 71.60 70.87 70.45 70.79 69.99 69.23 69.58
79.55 79.28 78.91 79.55 79.88 79.88 78.11 77.26 76.21 75.18 73.61 73.02 71.41 71.89 70.79 70.15 69.78 68.84 68.36 68.27 70.06 68.75
78.45 79.19 78.66 79.59 79.80 79.68 78.22 77.46 74.37 74.53 71.76 72.47 70.20 69.24 69.44 71.01 70.56 70.19 70.06 69.73 70.17 69.72
78.22 78.51 78.89 79.91 79.47 79.56 78.96 76.65 73.63 74.38 73.11 71.68 69.10 69.34 68.56 69.54 69.14 70.49 70.19 70.59 70.78 70.28
78.70 79.24 79.43 79.17 79.69 79.49 77.93 76.09 74.48 73.66 72.86 71.32 69.39 68.37 66.77 69.21 69.06 69.85 69.91 70.14 70.54 70.60
79.69 79.32 79.13 79.47 79.56 79.17 77.80 75.97 74.58 72.81 71.59 68.93 67.31 63.34 64.75 68.87 69.00 69.52 70.09 69.87 70.82 71.17
80.48 79.90 79.98 79.67 79.23 78.08 77.07 74.76 73.07 72.27 70.58 69.20 68.04 62.24 62.47 64.13 68.49 68.73 68.84 68.82 70.65 69.92
80.48 80.46 80.02 78.97 78.31 76.96 74.62 72.14 72.45 71.82 70.00 68.21 68.84 62.17 61.26 63.37 66.94 67.35 67.24 68.82 71.02 70.93
79.96 79.44 79.31 77.77 76.77 74.55 72.76 71.23 69.80 69.74 68.78 68.46 69.96 60.26 59.32 62.05 65.11 65.95 66.32 67.84 70.41 70.49
79.24 78.89 77.77 76.68 75.03 74.65 73.41 70.74 69.17 68.24 67.73 65.13 70.10 59.28 58.09 61.23 66.89 67.82 66.66 67.52 69.86 62.24
78.17 78.41 78.11 77.04 74.95 73.66 72.57 70.51 69.21 67.51 68.90 69.99 69.49 68.38 55.55 55.85 66.23 65.64 64.01 65.44 67.54 67.45

GFSNIL_sfc_wetblb_018.txt.gz
Wetbulb
78.57 78.48 77.01 78.17 76.61 75.50 74.48 74.56 74.58 75.20 74.85 74.64 73.90 74.08 74.00 72.96 71.18 72.04 70.74 70.14 70.89 69.35
78.13 78.09 77.45 77.63 77.57 76.24 76.11 77.35 74.45 74.67 74.70 73.43 74.00 73.80 73.91 71.45 71.01 71.89 71.99 71.50 70.64 69.93
78.48 78.19 77.80 77.76 77.45 75.71 76.72 75.94 75.18 74.94 74.19 72.87 72.63 73.62 72.62 70.54 71.46 71.36 70.73 70.87 70.42 69.87
78.31 78.73 78.16 78.50 77.47 76.84 77.24 75.56 75.29 74.81 73.18 72.42 71.89 72.67 70.89 69.51 69.80 68.74 70.12 69.78 69.81 69.13
78.58 78.44 78.35 77.44 78.58 78.05 76.73 77.24 75.54 74.50 73.01 71.89 71.19 71.48 69.83 68.49 68.62 68.61 68.29 69.05 68.74 68.51
77.25 77.64 77.54 78.24 77.49 78.55 77.37 75.82 73.89 74.44 72.75 71.17 70.95 70.10 69.32 69.05 68.73 67.40 68.47 68.52 68.47 67.48
76.64 76.89 77.00 77.67 78.19 78.00 77.94 76.22 75.09 73.88 72.95 71.26 71.05 69.96 69.24 68.81 69.05 69.13 69.17 69.69 69.32 69.17
76.95 77.19 77.50 77.36 77.90 77.95 78.08 76.99 76.06 73.60 73.34 71.82 70.79 70.01 69.20 69.20 69.20 69.21 68.65 68.89 69.20 68.98
76.18 77.08 76.80 77.59 77.20 78.04 77.81 77.36 76.09 74.13 72.77 71.70 70.65 64.63 65.22 68.59 69.05 69.49 68.94 67.66 69.22 68.76
75.89 76.33 76.78 77.01 77.40 77.15 77.19 77.30 75.71 73.78 72.59 72.02 70.91 62.23 62.64 65.04 69.31 69.10 69.26 68.02 68.54 65.87
76.33 76.61 77.04 76.90 76.82 77.34 77.51 76.88 75.83 73.55 71.79 70.84 70.29 62.02 61.40 63.52 67.96 68.56 68.67 66.45 65.32 66.13
78.72 77.81 77.60 77.24 77.46 77.63 77.58 76.79 73.45 71.61 70.19 69.39 69.05 60.75 59.79 61.87 65.43 65.54 66.30 65.80 63.87 66.36
79.80 79.74 78.76 78.84 78.17 78.37 76.28 73.85 71.69 70.38 69.88 65.97 67.21 58.82 57.97 59.76 64.25 63.63 65.78 68.08 66.99 62.47
79.80 79.45 79.71 79.24 77.58 74.15 72.69 72.07 70.51 68.87 67.71 67.04 66.70 66.57 56.55 56.56 65.97 65.57 65.68 65.49 65.71 64.93

GFSNIL_sfc_wetblb_021.txt.gz
Wetbulb
74.67 73.29 72.91 73.18 71.35 70.08 70.24 70.32 71.36 72.14 70.08 68.65 67.89 69.83 69.14 67.06 66.84 66.21 65.25 64.55 64.45 64.09
74.42 75.08 74.75 72.91 73.63 71.07 69.29 71.45 71.60 72.44 70.27 68.85 68.21 67.84 68.54 67.05 66.42 67.14 65.34 64.88 64.61 63.16
75.40 74.95 74.95 73.43 72.86 72.21 70.20 71.95 71.11 72.06 70.54 69.69 68.58 68.17 68.38 66.14 67.56 66.03 67.38 65.88 66.20 65.03
76.26 75.38 75.13 74.39 73.43 72.66 72.29 71.18 71.40 71.50 70.84 69.00 68.76 69.27 68.09 65.98 65.65 67.11 65.26 66.23 65.85 65.45
75.73 75.90 74.81 74.34 74.30 73.95 72.10 71.76 72.33 71.75 70.86 69.44 67.70 68.74 68.51 65.85 66.54 65.54 65.94 65.47 64.44 64.16
75.03 75.53 75.40 74.58 74.78 75.17 73.28 72.98 72.06 72.17 70.74 69.34 68.52 68.40 69.07 66.80 65.43 65.35 65.73 66.15 65.10 64.50
75.28 75.42 75.65 75.83 74.72 74.97 75.09 73.23 71.45 71.57 70.76 69.59 68.42 68.50 67.85 66.28 65.33 65.58 65.70 65.56 65.84 65.42
75.36 75.85 75.80 75.42 75.93 74.91 74.96 74.07 72.58 71.13 70.35 69.46 68.15 68.52 66.51 66.64 66.01 65.64 65.76 65.64 65.76 66.29
74.40 74.82 74.62 74.97 74.81 75.55 74.32 74.67 72.79 70.94 70.49 69.19 69.01 65.83 65.36 66.99 66.51 65.96 65.82 65.00 66.18 66.27
73.91 73.83 74.12 74.39 74.27 74.80 74.90 75.08 74.02 72.39 70.55 69.93 69.20 63.79 63.52 66.10 65.76 65.88 65.57 65.44 66.53 66.64
73.27 73.48 74.14 74.16 74.28 74.20 75.28 74.64 74.50 73.41 71.18 70.46 69.36 63.06 62.65 65.00 65.12 65.35 65.55 66.36 66.54 64.52
72.95 73.17 73.50 73.71 73.80 74.66 74.49 74.72 74.76 73.54 71.51 70.52 67.29 60.28 60.59 62.70 63.81 64.47 64.43 64.85 64.80 61.28
72.78 73.09 73.39 74.07 74.06 74.84 74.87 74.33 73.28 71.08 70.59 66.85 67.16 59.20 58.53 60.43 63.33 62.80 62.86 63.47 64.40 61.64
74.30 74.02 74.72 74.51 75.03 74.71 73.20 71.11 69.79 68.98 68.56 67.61 66.58 62.64 57.02 56.92 63.68 63.16 61.90 62.63 64.33 63.83

GFSNIL_sfc_wetblb_024.txt.gz
Wetbulb
72.13 72.22 71.74 70.93 70.91 71.99 71.88 70.36 71.34 71.55 69.56 67.72 67.05 67.24 66.51 64.80 65.33 64.23 63.77 64.14 62.80 61.80
73.24 72.57 71.94 71.07 71.12 71.19 70.92 69.92 70.95 70.85 68.95 67.47 66.75 67.91 67.26 65.09 64.76 65.45 64.01 63.24 62.50 63.13
72.70 73.68 73.15 72.55 71.76 70.46 69.38 70.12 70.22 70.58 68.92 67.65 66.25 67.09 67.08 65.40 64.80 65.36 65.34 65.15 64.06 62.92
73.28 72.87 73.73 73.94 72.57 71.81 69.95 69.72 69.77 70.72 69.36 68.00 66.67 66.14 67.01 65.52 65.67 64.19 64.07 65.53 64.47 63.81
73.89 73.72 73.15 73.49 73.45 72.48 70.94 70.07 70.14 70.30 69.80 68.72 67.61 66.65 67.05 66.16 66.02 65.45 64.36 63.79 64.49 63.64
74.36 74.02 73.39 72.91 73.45 72.63 72.04 70.44 70.60 70.23 70.05 68.75 67.84 67.62 67.27 67.08 65.70 64.77 64.89 64.96 63.92 63.48
73.96 74.67 74.41 73.94 73.24 73.19 72.97 70.92 70.58 70.35 70.14 69.50 68.00 66.99 68.08 67.63 65.81 64.85 64.58 64.82 65.05 64.28
73.84 74.43 74.98 74.31 73.64 73.18 73.77 72.55 71.03 70.61 70.20 69.54 68.60 67.85 66.85 67.25 66.18 64.58 64.31 64.53 64.92 64.98
74.37 74.03 74.01 74.37 74.32 73.42 72.89 74.11 71.24 70.17 70.00 68.52 68.63 65.51 65.33 67.27 66.18 65.46 64.91 64.18 64.08 64.80
74.13 74.04 74.09 74.24 74.11 74.30 73.23 72.88 71.95 69.70 69.53 68.46 68.75 63.66 63.84 65.71 65.80 65.26 65.85 65.43 63.96 64.67
73.78 73.62 73.97 74.09 73.83 73.82 74.67 73.09 72.91 71.14 70.09 69.83 69.23 62.98 62.07 64.96 66.76 66.58 66.44 65.90 65.80 64.82
73.76 72.99 73.40 72.89 73.23 73.74 74.03 74.24 73.71 73.41 70.88 69.91 69.34 61.36 60.23 64.03 65.91 66.00 65.83 66.29 66.65 66.54
73.70 73.09 72.67 73.07 73.10 73.87 74.11 74.03 74.22 73.78 71.88 68.26 70.37 58.74 58.38 63.75 65.35 64.05 63.53 64.66 64.73 61.02
73.02 72.83 73.00 72.95 73.41 73.50 73.41 73.68 73.57 72.40 70.57 69.82 67.19 60.75 56.52 58.33 64.08 64.03 62.45 62.55 61.96 62.95

GFSNIL_sfc_wetblb_027.txt.gz
Wetbulb
71.76 70.98 70.72 69.39 69.48 70.29 71.17 71.06 71.92 71.73 70.90 67.72 66.18 66.53 64.90 64.36 63.79 63.10 63.18 62.48 61.93 62.49
71.68 71.20 70.47 69.73 70.30 70.85 70.95 71.37 70.29 71.80 70.61 68.31 66.05 66.44 65.16 64.01 63.92 63.56 62.61 62.81 62.76 62.16
71.54 71.73 71.30 70.49 70.31 70.38 70.47 69.93 70.14 70.79 70.05 68.16 66.40 66.42 65.96 64.27 63.78 64.43 63.42 62.79 62.07 61.94
72.03 71.96 71.63 71.11 70.99 70.89 69.71 69.05 69.64 70.22 69.28 67.79 66.35 66.44 66.14 65.20 64.31 63.38 63.74 63.71 62.94 61.99
71.62 72.08 72.15 71.80 71.52 71.51 70.09 68.96 69.19 69.86 68.99 68.07 67.06 65.65 66.86 65.78 65.70 63.80 62.40 62.97 63.77 63.30
71.56 71.45 71.38 72.14 72.71 71.87 71.18 69.18 69.31 69.33 69.31 68.12 67.14 66.01 65.75 66.66 65.82 64.81 64.38 62.80 62.86 63.48
71.94 72.14 71.99 71.91 71.88 72.46 72.26 70.09 69.26 69.01 69.57 69.07 68.09 67.24 66.49 65.72 65.38 64.39 64.63 64.54 64.05 63.23
72.45 72.84 72.68 72.24 71.91 72.15 72.14 71.24 70.27 69.25 69.30 69.28 68.47 68.12 67.24 66.40 65.75 64.56 64.39 64.34 64.73 64.58
72.70 72.99 73.01 72.74 72.24 71.80 71.65 71.91 70.35 69.66 69.18 68.94 68.87 65.45 64.91 67.40 66.78 65.16 64.85 64.22 64.47 64.44
72.16 72.15 73.04 73.31 72.94 72.00 71.39 72.04 70.27 70.13 69.74 68.81 68.76 63.48 63.44 65.60 66.83 65.42 64.99 64.52 65.63 64.98
72.30 71.92 72.29 72.71 72.98 72.72 72.19 71.78 72.09 70.20 69.86 69.38 68.87 62.80 61.47 64.45 66.18 65.17 65.60 66.25 65.98 65.38
73.10 72.52 72.49 72.07 72.52 72.99 73.08 72.04 71.90 71.22 69.72 69.22 69.18 60.85 59.80 62.63 66.61 66.04 65.88 66.49 66.14 65.76
73.33 73.18 72.61 72.86 72.81 73.21 73.37 73.38 72.87 72.01 70.93 68.22 70.32 59.45 58.31 62.62 66.92 65.81 65.60 65.79 65.88 62.33
73.38 73.07 73.13 73.01 73.31 73.17 73.01 73.20 73.50 72.79 72.74 70.94 70.01 64.58 56.59 59.38 66.76 66.17 65.33 64.96 63.97 63.77

GFSNIL_sfc_wetblb_030.txt.gz
Wetbulb
71.24 71.03 71.04 70.56 70.72 70.79 71.06 71.73 73.02 72.80 72.48 71.31 69.94 69.10 67.84 66.68 65.72 66.67 66.44 65.54 65.36 64.92
71.19 71.29 71.00 70.90 71.01 71.09 71.59 72.08 72.56 72.83 72.50 71.65 69.91 68.92 67.54 66.38 65.80 65.95 66.00 65.94 65.98 65.24
71.36 71.96 71.88 71.18 70.49 70.85 71.42 72.53 71.91 72.43 72.32 71.59 69.68 68.78 67.43 66.66 66.58 66.39 65.33 65.01 65.63 65.36
71.50 71.85 71.98 71.00 71.20 71.06 71.49 71.63 71.43 72.00 72.02 71.25 69.71 68.38 67.78 67.08 66.42 66.27 66.13 65.94 65.21 65.21
71.73 71.81 71.64 71.20 71.53 71.73 70.96 71.14 71.25 71.53 71.59 71.01 69.98 68.85 67.79 67.13 67.07 65.95 65.72 66.12 65.59 65.21
71.32 71.34 71.34 71.43 71.78 71.68 71.26 70.68 70.75 71.07 70.81 70.09 69.56 68.37 68.47 67.99 67.38 66.94 66.53 66.06 66.09 66.15
71.15 71.43 71.70 72.23 72.23 71.85 71.95 70.39 70.33 70.46 70.72 70.32 69.67 69.13 68.25 68.13 67.83 67.38 67.10 66.88 66.15 66.18
71.02 71.51 71.75 71.86 72.30 72.52 72.39 71.48 70.54 70.45 70.47 70.57 69.78 69.16 68.48 67.81 67.63 67.21 66.99 67.42 67.19 66.61
71.18 71.34 71.32 71.58 71.58 71.90 72.34 72.53 71.15 70.27 70.11 69.98 69.91 65.80 64.99 67.73 67.49 67.21 66.92 66.34 66.79 67.38
71.26 71.34 71.65 72.07 71.70 71.33 71.47 72.05 71.48 70.83 70.54 70.01 70.26 63.00 63.58 65.72 68.61 67.47 67.10 66.99 66.89 66.39
71.54 71.39 71.90 72.13 71.89 71.84 71.74 71.47 71.54 71.23 70.98 70.44 70.45 61.76 61.73 64.88 69.04 68.36 67.93 67.42 67.19 67.52
71.98 71.63 71.98 72.02 72.21 72.31 72.08 71.68 71.63 71.74 71.02 70.42 70.71 60.85 60.66 62.94 68.25 67.36 67.00 67.20 67.46 66.86
72.20 71.88 71.65 72.00 72.45 73.09 73.11 72.32 72.25 72.10 71.88 68.58 70.95 60.50 58.44 62.62 68.21 66.64 66.70 67.47 66.88 62.70
72.69 72.40 72.35 72.27 72.55 72.64 72.97 72.95 72.27 72.09 71.86 71.39 70.43 68.57 56.95 58.32 68.56 67.72 66.97 66.09 66.00 66.27

GFSNIL_sfc_wetblb_033.txt.gz
Wetbulb
76.10 74.96 75.13 75.59 74.50 74.44 74.47 75.36 77.39 77.45 77.35 77.18 76.79 76.07 75.51 74.39 73.07 72.64 71.78 71.42 71.31 70.13
75.69 75.86 75.42 76.46 76.56 75.05 76.92 75.52 76.74 77.23 77.09 77.12 76.66 75.82 75.08 73.86 72.89 71.97 71.93 71.38 71.43 70.32
75.08 75.88 76.04 76.48 76.15 76.13 76.69 76.59 76.22 76.44 76.69 76.79 76.58 75.69 74.88 73.60 73.32 71.82 70.97 70.64 71.03 70.88
74.80 75.39 75.93 75.77 76.17 76.44 76.86 76.67 76.65 76.41 76.29 76.45 76.20 75.75 74.54 74.00 72.98 71.57 71.59 71.12 70.75 70.74
75.16 75.35 75.47 75.53 76.04 76.72 76.40 76.50 77.22 76.62 76.30 76.27 76.05 75.55 74.48 73.60 72.73 71.85 71.29 71.05 70.76 70.12
74.73 75.02 75.12 75.63 76.07 76.46 76.54 76.60 75.89 76.37 76.16 75.74 75.88 75.28 74.66 74.52 73.22 72.57 72.05 71.65 70.93 70.59
74.80 74.92 75.28 75.90 76.12 76.14 76.43 76.39 76.37 76.56 76.43 75.98 75.51 75.38 74.90 74.56 73.79 73.19 72.64 72.32 71.52 71.21
75.19 75.83 75.80 75.80 76.02 76.21 76.44 76.31 76.58 76.31 76.51 76.03 75.31 74.61 74.85 74.44 73.76 73.17 72.68 72.41 71.82 71.63
75.32 75.62 75.35 75.64 75.73 75.98 76.00 76.11 76.11 76.01 75.93 75.56 74.65 68.39 66.96 72.47 74.09 73.88 73.21 72.56 72.17 72.51
74.73 74.94 75.23 75.72 75.84 75.66 75.58 76.09 75.71 75.54 75.70 75.29 75.60 64.46 64.42 66.78 74.09 73.57 73.76 73.77 72.80 71.66
74.13 74.39 74.86 75.13 75.00 75.53 75.65 75.75 75.62 75.37 75.39 75.49 75.31 62.97 62.55 65.27 73.40 74.27 74.20 73.53 73.45 72.73
73.41 73.08 74.71 74.43 74.73 75.00 75.07 75.33 75.54 76.00 75.82 75.36 75.46 61.70 60.89 64.39 72.25 73.54 73.29 73.24 72.96 72.62
74.84 74.61 74.65 74.92 75.11 75.63 75.45 75.03 75.25 75.58 76.23 72.34 75.60 61.23 59.09 64.06 72.73 72.87 72.04 73.31 73.11 63.97
75.79 75.16 75.43 76.01 76.09 76.29 75.03 75.06 74.72 75.09 75.78 75.72 74.20 73.50 57.94 58.57 72.89 73.18 72.04 71.95 71.27 71.96

GFSNIL_sfc_wetblb_036.txt.gz
Wetbulb
80.01 76.92 76.79 78.15 76.86 76.34 75.72 76.47 77.95 77.97 78.58 79.05 79.23 79.28 79.24 77.78 76.65 76.48 75.40 74.38 73.11 71.09
79.29 78.84 77.59 79.01 79.29 77.50 79.34 77.16 77.66 77.96 78.69 78.95 78.95 79.38 78.95 77.24 76.46 75.94 75.84 74.52 73.53 71.80
78.39 79.48 79.53 79.88 79.41 79.29 79.15 79.47 78.32 78.00 78.30 78.74 78.65 78.88 78.87 77.57 77.14 76.02 74.98 73.54 73.20 72.84
77.75 78.22 78.56 78.95 79.77 80.01 79.28 80.20 78.92 78.90 77.99 77.72 77.99 78.62 78.36 78.16 77.13 75.80 75.33 74.18 73.06 73.28
78.40 78.55 77.98 78.67 79.37 80.40 79.91 80.02 79.73 79.52 78.52 78.07 77.73 78.25 78.11 77.22 76.58 75.62 74.88 74.49 73.49 72.69
77.11 77.44 78.39 79.33 79.32 79.95 79.89 80.23 78.34 79.14 79.75 78.47 77.93 78.29 78.16 77.63 77.03 76.39 75.78 75.12 74.10 73.21
77.64 78.12 78.31 79.19 79.41 79.64 80.09 79.96 79.73 80.02 80.00 79.38 78.40 78.13 77.75 77.48 77.10 76.94 76.29 75.99 75.14 74.18
78.21 78.93 79.08 79.14 79.36 79.73 79.94 79.86 80.16 80.00 79.93 80.15 78.45 76.98 78.47 78.49 77.21 77.46 76.62 76.18 75.73 74.89
78.66 79.12 78.97 79.07 79.29 79.71 79.60 79.69 79.88 79.64 79.49 79.31 77.78 69.76 68.22 75.46 77.65 78.06 77.55 76.72 76.18 76.25
78.90 78.69 78.98 79.42 79.43 79.16 79.07 79.52 79.28 79.43 79.53 79.32 79.37 65.78 65.57 68.31 77.49 77.49 77.84 77.81 76.62 75.11
78.26 78.42 79.15 79.04 78.63 78.98 79.26 79.00 78.97 79.12 79.32 79.26 79.18 65.24 63.35 66.60 76.93 78.07 78.62 78.09 77.43 77.11
78.08 77.07 77.69 78.36 78.48 78.56 77.89 78.20 78.53 78.32 79.26 79.00 78.93 63.65 61.60 66.01 75.79 76.00 77.91 78.51 77.89 77.99
78.15 78.14 77.71 78.51 78.79 78.96 78.08 77.74 77.42 77.62 79.21 75.19 79.09 63.80 60.04 65.62 75.11 75.16 75.02 77.88 78.61 66.46
78.48 78.55 78.75 79.29 79.09 78.67 78.14 77.53 77.91 78.33 78.79 79.29 77.73 77.45 58.33 59.34 75.29 75.51 75.48 75.05 75.83 76.18

GFSNIL_sfc_wetblb_039.txt.gz
Wetbulb
80.50 77.59 77.18 78.38 76.18 75.70 75.39 75.82 80.56 80.48 80.29 80.29 80.34 79.57 80.95 78.42 77.59 78.50 76.15 75.95 75.48 72.17
80.24 79.65 77.87 78.94 79.65 78.11 78.77 76.86 79.64 79.95 79.93 79.74 79.97 80.58 80.98 77.36 78.78 78.39 77.21 76.75 76.12 73.20
80.64 80.69 80.16 80.31 79.91 78.84 79.86 80.72 80.91 79.62 79.34 79.47 80.18 80.49 80.74 78.65 79.59 78.52 76.47 75.00 76.98 75.67
80.23 80.40 80.96 80.16 80.55 80.59 80.83 81.68 80.31 80.59 79.86 79.89 80.02 80.34 80.21 79.53 79.38 78.25 77.69 77.43 77.24 76.13
80.40 80.26 79.99 80.24 80.57 81.18 81.00 81.14 81.41 81.42 80.44 80.28 79.85 80.16 80.00 78.66 77.30 78.26 77.05 76.51 76.31 75.27
79.73 79.91 79.69 80.28 80.59 81.12 81.10 81.22 80.89 80.58 80.79 80.37 79.83 79.86 80.20 79.64 78.96 78.75 78.12 77.67 76.65 75.47
79.34 79.47 79.73 80.28 80.79 80.69 81.28 80.96 80.59 80.73 80.87 80.67 80.46 79.95 79.69 79.63 79.45 78.93 78.51 78.37 77.85 76.85
79.76 80.50 80.56 80.18 80.50 80.64 81.07 81.05 81.11 80.63 80.74 81.07 80.37 79.24 79.55 79.05 79.23 79.23 78.56 78.72 78.51 77.84
79.88 80.26 80.31 80.46 80.39 80.86 80.60 80.80 80.83 80.62 80.46 80.35 80.14 71.53 68.75 76.21 79.06 79.44 79.03 78.14 78.82 78.55
79.76 79.63 80.31 80.64 80.66 80.25 80.38 80.72 80.50 80.39 80.54 80.04 80.41 67.48 66.11 68.66 78.70 78.99 78.85 78.84 78.86 77.99
79.21 79.67 80.10 80.29 80.33 80.53 80.67 80.21 80.16 80.36 80.58 80.50 80.35 67.85 63.63 66.44 77.10 78.07 78.84 78.82 78.94 79.09
79.72 79.55 80.04 79.63 79.71 80.30 80.22 80.13 79.96 80.34 80.36 80.32 80.27 66.09 62.61 65.22 76.02 76.51 77.37 78.60 78.96 79.13
80.08 79.88 79.77 80.26 80.58 80.73 80.47 79.89 79.58 79.63 80.40 76.36 79.99 68.12 61.80 64.87 76.23 75.58 76.24 77.73 78.30 68.27
80.14 80.25 80.33 80.53 81.01 80.70 80.25 79.11 79.60 79.42 79.84 80.10 78.63 79.23 60.59 59.50 75.34 76.05 75.92 76.26 76.57 78.02

GFSNIL_sfc_wetblb_042.txt.gz
Wetbulb
77.44 77.00 74.75 76.69 75.23 74.19 75.15 75.88 78.17 77.41 78.64 78.19 78.60 78.44 79.66 78.84 77.80 77.95 76.51 77.02 75.13 73.50
76.39 77.67 76.00 75.44 77.53 77.20 76.56 77.70 79.36 78.01 78.22 78.02 78.67 77.99 79.06 77.44 77.69 78.28 76.68 75.84 76.43 74.36
77.70 77.43 77.21 76.69 77.19 76.47 78.69 77.73 81.20 78.36 78.03 78.33 78.34 78.72 78.49 77.96 78.17 77.41 76.97 75.62 75.35 74.66
78.31 77.84 77.57 77.05 77.39 78.56 77.64 80.28 77.95 79.36 78.39 78.10 77.92 78.10 78.57 77.12 77.04 77.39 76.29 76.13 75.34 74.36
78.31 78.76 78.08 77.29 77.53 78.14 78.80 78.31 79.75 79.04 78.30 77.96 77.63 78.22 77.47 77.11 75.69 76.73 76.03 75.05 75.11 74.70
78.28 78.09 78.25 78.21 77.72 78.29 77.80 78.98 78.07 79.13 78.74 77.56 77.79 77.60 77.93 77.32 76.70 74.97 76.73 76.25 74.66 74.27
78.38 78.44 78.56 78.76 78.83 78.12 78.62 77.62 78.51 78.26 78.11 78.36 78.00 77.91 77.63 77.70 77.48 76.80 76.07 77.10 76.28 75.10
77.91 78.87 78.69 78.57 78.87 79.29 78.70 78.87 78.45 78.27 78.82 78.40 78.45 78.24 77.63 77.41 77.27 77.18 76.28 76.58 77.00 76.24
77.55 77.91 78.48 78.40 78.37 78.77 78.97 78.73 79.12 78.39 77.84 78.13 78.37 72.21 69.66 75.15 77.19 77.17 76.77 76.14 76.46 76.56
77.66 77.74 78.09 78.40 78.44 77.99 78.39 78.86 78.62 78.62 78.50 77.71 78.21 68.71 67.38 69.39 77.18 76.74 76.98 76.90 76.44 76.32
78.37 77.68 78.40 78.39 78.12 78.38 78.32 78.41 78.18 78.38 78.57 78.25 78.14 68.11 65.19 67.17 75.97 76.52 76.81 76.93 76.91 76.39
78.62 77.89 78.11 78.10 77.93 78.32 78.39 78.27 78.48 78.72 78.52 78.28 78.30 66.13 63.99 65.22 74.59 75.52 75.79 76.74 76.92 76.80
77.27 78.15 77.99 78.20 78.34 78.76 78.83 78.57 78.62 78.53 78.86 75.38 78.46 68.44 62.41 64.81 75.77 74.55 74.77 75.48 76.20 67.89
78.70 77.64 78.53 78.81 79.19 78.97 78.63 78.60 78.40 78.31 78.70 78.86 77.52 77.54 61.70 59.73 76.00 75.86 74.79 74.48 74.52 75.32

GFSNIL_sfc_wetblb_045.txt.gz
Wetbulb
73.89 72.73 71.92 71.78 71.07 70.17 72.26 73.53 74.13 75.13 75.68 74.88 75.11 74.89 74.97 74.49 74.80 73.68 71.55 71.95 70.19 67.54
72.75 74.68 72.16 71.07 72.09 69.79 71.33 73.25 74.61 75.03 75.77 75.13 75.21 74.88 74.42 75.17 73.83 74.20 72.74 71.80 72.03 69.87
73.28 72.75 74.56 71.82 71.10 73.07 72.02 71.93 74.43 75.00 74.94 75.20 75.50 75.24 74.43 74.72 74.63 73.62 73.66 72.56 72.07 71.36
74.65 73.93 73.80 73.94 71.85 73.48 73.28 74.33 73.69 75.09 74.83 75.02 75.13 75.47 74.64 74.23 73.94 74.02 73.35 72.58 72.25 71.43
75.32 75.27 73.68 73.85 74.14 72.26 74.48 74.19 75.21 75.92 75.52 75.61 75.24 75.17 75.08 74.34 74.75 72.97 73.05 72.77 71.45 71.82
74.86 75.19 74.75 74.40 73.95 74.71 73.35 75.49 74.42 75.62 75.48 75.46 75.47 75.14 75.01 75.46 74.49 72.99 73.83 73.44 72.69 71.83
75.22 75.30 75.67 75.75 75.34 73.79 75.23 74.54 75.80 74.36 75.70 75.43 75.63 75.40 75.50 75.17 75.01 74.23 73.04 74.17 73.79 72.85
75.88 75.91 75.94 75.83 76.17 76.08 74.69 75.49 74.99 75.77 75.11 76.20 75.41 75.83 75.27 75.66 75.16 74.72 74.15 73.13 74.71 74.31
75.75 76.16 75.87 76.02 75.96 76.26 76.12 75.14 75.79 74.93 75.20 75.35 76.49 70.83 69.36 73.87 75.19 75.19 74.92 74.09 73.15 74.72
75.56 75.56 75.87 76.31 76.22 76.05 76.17 76.57 75.37 75.69 75.49 75.28 75.79 67.86 67.18 69.30 75.50 74.82 75.17 74.99 74.87 73.60
74.83 75.01 75.54 75.74 75.71 75.97 76.23 76.24 76.41 76.03 76.34 75.94 76.06 67.21 64.94 67.49 75.06 75.29 75.06 75.34 75.32 74.75
74.57 74.59 74.97 74.97 75.59 76.05 75.97 75.79 76.09 76.67 76.52 76.26 76.50 65.21 64.03 65.50 73.63 74.84 74.90 75.20 75.45 75.41
75.17 75.25 74.92 75.45 75.67 76.26 76.29 76.06 76.25 76.24 76.77 73.59 76.67 66.32 62.08 64.58 74.44 74.06 74.36 74.97 75.02 67.38
75.16 75.38 75.89 75.70 76.31 76.20 76.23 76.19 76.01 76.01 76.68 76.87 75.62 75.38 61.25 60.09 74.30 75.13 74.52 74.23 74.06 74.59

GFSNIL_sfc_wetblb_048.txt.gz
Wetbulb
70.84 71.16 70.33 69.31 67.92 68.17 70.23 71.95 72.59 74.36 74.16 73.55 73.91 73.55 73.13 72.55 71.81 70.36 69.84 69.96 67.60 66.48
72.00 71.43 71.34 69.63 69.29 67.56 69.63 72.77 72.86 74.13 74.78 73.91 73.85 73.60 73.16 72.82 72.99 72.57 70.74 69.79 70.38 67.92
71.74 73.38 72.27 70.63 69.45 71.91 68.90 71.51 72.78 72.94 74.68 74.28 73.88 73.60 72.89 72.74 72.99 72.90 72.14 71.31 70.18 69.76
71.57 71.24 73.59 71.68 70.03 70.39 71.36 69.93 71.01 73.11 73.54 74.23 74.01 73.60 72.92 72.47 73.43 72.60 72.64 72.25 71.03 70.13
72.82 72.31 70.98 73.21 72.20 71.14 70.83 71.83 71.10 72.96 73.09 73.83 74.03 73.98 73.23 72.76 73.44 73.26 72.55 72.76 71.63 70.98
73.15 73.14 72.44 71.50 73.17 72.81 71.27 71.49 72.13 73.86 73.55 73.82 73.86 74.13 74.26 73.58 73.01 73.14 73.21 73.11 72.14 71.91
72.93 73.71 73.83 73.38 72.31 73.07 73.16 70.82 72.46 73.26 74.59 74.23 74.61 74.28 74.20 74.31 74.00 73.57 73.39 73.34 73.11 72.73
73.36 73.96 74.50 74.31 73.58 73.16 72.86 73.66 72.09 72.75 73.16 74.91 74.78 74.90 74.46 74.18 73.91 74.03 73.38 72.73 73.50 73.37
73.88 73.94 73.91 74.53 74.48 73.93 73.51 72.50 73.45 73.42 73.44 73.43 75.19 69.82 68.74 73.11 74.20 73.93 73.44 72.76 72.23 73.19
73.74 74.15 74.33 74.49 74.55 74.41 74.31 74.01 72.41 73.27 73.80 73.39 74.09 66.77 66.68 68.76 74.38 74.08 73.78 73.56 73.26 72.89
74.05 74.13 74.75 74.52 74.27 74.45 74.98 74.96 74.63 73.54 73.77 74.07 74.08 65.58 64.42 66.84 73.71 74.27 74.12 74.31 74.31 73.83
73.71 74.38 74.51 74.30 74.55 74.95 75.10 75.00 75.29 75.46 74.97 74.15 74.79 64.06 62.96 65.06 72.14 73.77 74.22 74.55 74.49 74.58
72.81 73.99 74.18 74.53 74.64 75.47 75.40 75.24 75.64 75.41 76.06 72.73 75.16 65.13 61.67 64.46 73.25 73.04 73.65 74.80 74.98 67.36
72.48 72.73 74.14 74.34 74.86 74.81 74.92 75.10 74.78 74.88 75.34 75.65 74.53 74.51 60.54 60.09 73.93 74.24 74.16 73.83 74.08 74.86

GFSNIL_sfc_wetblb_051.txt.gz
Wetbulb
69.27 69.13 69.08 68.70 67.71 67.49 68.58 70.01 71.68 72.90 72.85 72.43 72.31 72.09 71.30 70.86 70.81 69.21 69.73 68.28 66.06 65.52
69.96 69.68 69.33 68.89 68.56 67.82 67.95 70.62 70.91 71.90 72.93 72.74 72.87 72.49 72.09 71.57 71.22 70.46 68.81 69.24 68.52 66.32
70.49 70.52 70.27 68.88 67.81 67.55 67.47 69.73 71.16 71.67 72.50 72.81 72.75 72.93 72.20 71.78 71.64 71.49 70.71 69.50 68.59 68.59
70.71 70.74 70.78 69.96 69.53 69.81 68.68 68.63 70.37 71.07 72.18 73.04 72.76 72.91 72.31 71.90 72.11 71.73 71.65 71.33 69.89 69.14
70.85 71.37 71.59 70.87 69.79 69.80 69.96 69.44 69.34 71.20 71.68 72.71 73.31 73.05 72.36 71.69 72.29 72.19 71.47 71.86 71.04 70.71
70.45 70.08 70.29 72.44 72.52 70.36 69.31 69.13 70.51 70.00 71.70 72.00 72.74 72.87 72.73 72.68 71.99 71.98 72.56 72.47 71.77 72.05
71.01 71.12 70.81 70.34 71.41 72.54 71.53 70.28 70.26 71.37 71.56 72.12 72.75 73.02 73.17 72.93 72.31 72.13 72.36 72.78 72.85 72.64
71.58 72.12 72.18 71.74 70.90 71.21 72.44 72.33 71.36 71.19 71.87 72.91 73.16 73.45 73.17 73.27 72.85 72.25 72.09 72.43 72.69 73.06
71.18 71.96 72.30 72.45 72.38 71.43 70.92 72.24 72.30 70.80 71.04 72.18 73.54 69.26 68.32 72.19 73.12 73.01 72.63 72.13 72.32 72.89
71.68 71.46 72.15 72.99 72.98 72.58 71.79 71.53 71.45 72.07 71.79 70.97 72.35 66.10 66.57 68.69 73.70 73.02 72.85 72.80 72.60 72.40
72.33 72.25 72.43 72.52 72.96 73.19 73.33 72.46 72.01 71.39 71.64 72.13 72.36 65.35 64.32 66.75 72.87 73.61 73.39 73.37 73.17 72.92
72.69 72.26 72.72 72.67 72.74 73.36 73.59 73.58 73.32 73.37 72.13 71.84 72.55 63.08 62.89 65.03 71.89 72.92 73.22 73.65 73.79 73.77
72.78 72.96 72.75 73.49 73.57 73.69 74.02 73.74 74.24 74.26 74.46 70.94 73.00 64.18 60.89 63.64 72.18 71.87 72.40 73.34 74.02 66.79
73.02 73.11 73.77 73.88 74.13 74.22 73.84 74.24 73.99 73.99 74.59 74.94 73.61 73.22 60.29 59.44 72.16 72.87 72.85 72.90 73.35 74.17

GFSNIL_sfc_wetblb_054.txt.gz
Wetbulb
69.56 68.88 68.96 68.68 68.65 68.45 68.78 70.44 73.03 73.07 73.70 73.74 73.67 73.43 73.28 72.20 72.42 72.02 70.96 69.59 68.29 68.43
69.49 69.19 69.11 69.11 69.29 69.20 69.53 70.67 71.90 73.11 73.56 73.84 73.68 73.60 73.42 72.43 72.38 72.74 71.94 72.06 71.42 69.19
69.59 69.78 69.83 69.66 69.20 68.85 69.02 70.86 71.68 71.95 73.16 73.81 73.90 74.05 73.54 73.32 73.26 72.83 72.39 71.29 71.16 71.27
69.86 70.13 70.25 69.64 69.60 69.59 69.14 69.54 71.21 71.93 72.35 72.79 73.20 73.62 73.47 73.65 73.69 72.97 73.31 72.91 71.80 71.40
70.37 70.50 70.13 70.19 69.98 70.22 69.53 69.44 70.54 71.78 72.04 72.83 73.66 73.67 73.40 73.32 73.70 73.16 72.98 73.17 73.08 72.79
70.10 70.25 70.15 70.32 70.68 70.79 70.77 70.54 70.07 70.77 71.39 72.04 73.28 73.81 73.76 73.68 73.45 73.37 73.44 73.57 73.33 73.27
70.00 70.47 70.82 71.33 71.45 70.59 70.66 70.71 71.02 70.88 71.41 72.25 72.90 73.67 73.94 73.83 73.71 73.39 73.35 73.98 73.70 73.68
70.49 70.79 71.01 71.37 72.22 72.57 71.19 70.81 70.91 70.92 71.41 72.02 72.67 73.33 73.56 73.94 73.61 73.50 73.24 73.57 73.80 74.13
70.77 70.91 70.76 70.67 70.56 71.41 72.54 72.47 72.02 71.15 71.41 71.70 72.10 67.88 67.48 71.98 73.61 73.64 73.26 72.80 73.31 73.90
70.45 71.01 71.25 71.70 71.42 70.66 70.45 71.85 72.17 72.20 72.05 71.56 72.42 65.65 65.68 67.77 73.61 73.61 73.70 73.72 73.58 73.56
70.68 70.68 71.64 71.93 71.84 71.98 71.74 70.99 71.24 72.02 72.39 71.59 71.70 64.74 63.87 66.28 72.85 73.54 73.96 74.03 74.13 74.06
71.21 71.06 71.49 71.65 72.32 72.87 72.82 72.57 71.99 72.00 72.19 72.33 72.62 62.85 62.55 64.80 72.23 73.18 73.45 74.33 74.76 74.48
72.15 72.09 71.87 72.04 72.27 73.24 73.56 73.56 73.78 73.30 73.37 69.58 72.50 63.63 60.72 63.50 72.00 71.91 72.62 73.81 74.53 66.70
72.96 72.58 73.13 73.34 73.59 73.37 73.46 73.75 73.87 74.12 74.44 74.61 72.26 72.27 59.84 58.86 71.79 72.49 72.52 72.74 73.31 74.41

GFSNIL_sfc_wetblb_057.txt.gz
Wetbulb
75.34 73.10 73.09 74.48 73.30 72.92 72.93 74.03 76.67 77.12 77.54 77.79 77.96 77.79 77.62 76.59 76.37 76.62 75.17 74.72 73.60 71.97
74.77 74.73 73.84 75.17 74.78 73.63 75.11 73.62 75.34 76.44 76.84 77.34 77.54 77.90 77.82 76.49 76.39 76.58 76.63 76.04 75.87 74.07
74.32 74.78 75.00 74.86 74.67 75.20 74.40 74.48 74.63 75.72 76.41 76.92 77.26 77.79 77.65 76.75 77.34 76.81 76.16 75.79 76.40 76.41
73.90 73.93 74.28 74.17 74.50 75.38 74.93 74.97 75.09 75.67 75.95 76.31 76.48 77.06 77.20 76.96 77.09 76.72 76.91 76.97 76.20 76.13
73.90 74.34 73.63 74.16 74.34 75.55 75.52 74.84 75.06 75.62 75.92 76.18 76.06 76.56 76.45 76.13 75.81 76.10 76.45 76.92 76.83 76.12
73.13 73.38 74.14 74.43 74.62 75.07 75.21 75.21 74.47 74.87 75.39 75.51 75.75 76.17 76.39 76.35 76.28 76.31 76.62 77.01 77.00 76.92
73.71 74.01 74.04 75.16 75.23 74.67 75.39 75.09 74.94 75.03 75.31 75.37 75.69 75.97 76.00 76.18 76.36 76.39 76.67 77.12 77.29 77.29
74.23 74.62 75.01 75.06 75.34 75.15 75.50 75.57 75.91 75.27 75.04 75.31 74.87 74.72 75.84 75.75 76.15 76.28 76.45 76.82 77.23 77.48
74.48 74.76 74.78 75.17 75.25 75.63 75.25 75.34 75.60 74.79 74.99 74.92 74.33 68.18 67.19 73.47 75.66 76.59 76.46 76.13 76.79 77.18
74.61 74.53 74.70 75.33 75.43 75.61 75.74 75.04 74.67 74.56 74.94 75.31 76.24 65.42 65.05 67.55 75.11 75.95 76.70 76.92 76.62 76.37
74.60 74.37 74.86 75.05 74.87 75.22 75.42 75.98 75.70 75.47 75.92 75.58 76.00 65.10 63.44 65.47 73.95 75.90 76.84 77.12 77.29 77.50
74.44 74.53 74.90 74.69 74.97 75.34 74.69 74.64 74.82 75.14 75.44 75.53 76.20 63.33 62.57 65.61 74.07 74.87 76.23 76.93 77.60 77.54
74.61 74.62 74.59 75.18 75.63 76.17 75.82 74.87 74.78 74.53 75.57 71.84 76.20 65.27 60.61 64.36 73.70 74.53 74.06 76.63 77.50 67.55
75.35 75.44 75.74 76.04 76.42 75.85 75.58 75.97 75.84 75.44 76.21 76.00 74.44 74.88 60.15 58.75 73.63 74.09 74.46 74.43 74.82 75.96

GFSNIL_sfc_wetblb_060.txt.gz
Wetbulb
77.84 74.85 75.25 76.16 75.29 74.84 74.32 74.88 77.20 78.29 78.68 78.81 78.99 79.11 78.88 77.47 77.01 77.78 76.71 76.64 76.32 73.42
77.48 77.01 75.88 78.21 76.61 75.37 77.64 75.44 76.47 77.14 77.94 78.20 78.52 78.82 78.85 77.43 77.95 77.89 77.50 77.60 77.19 75.68
76.21 77.09 77.42 77.11 77.23 77.20 76.47 77.01 76.47 76.40 76.88 76.98 77.56 78.57 78.96 77.94 78.56 78.48 77.45 76.56 77.60 77.74
75.91 76.10 76.51 76.06 76.58 76.90 77.01 77.27 77.12 76.63 76.32 76.31 77.30 78.19 78.42 78.32 77.72 77.99 78.36 78.18 77.33 77.43
76.67 76.76 75.55 76.11 76.66 77.32 77.11 77.42 77.45 77.44 76.68 76.13 76.62 77.75 77.84 77.33 76.85 77.05 77.20 77.73 77.72 77.38
75.42 75.43 76.26 76.68 76.78 77.57 77.04 77.44 77.21 77.24 76.99 76.49 76.31 77.08 77.86 77.74 77.39 77.02 77.11 77.39 77.78 77.81
75.78 76.05 75.84 77.52 77.72 76.87 78.11 77.37 77.32 77.50 77.16 76.98 76.63 76.28 76.68 77.11 77.35 77.17 77.07 77.85 78.07 78.35
77.30 77.43 77.34 77.80 78.09 77.84 77.99 77.31 77.60 77.46 77.41 77.27 76.56 75.30 76.37 76.43 76.31 76.94 77.08 77.53 78.26 78.48
77.78 77.91 77.99 78.36 78.40 78.74 78.48 77.99 77.86 77.22 77.26 76.77 76.14 68.66 66.81 72.91 75.38 76.41 76.69 76.89 77.81 78.58
78.03 77.92 78.04 78.41 78.63 78.57 78.35 78.17 77.82 77.28 77.30 77.60 78.13 65.98 64.84 67.24 74.94 75.29 76.95 78.40 77.60 77.03
78.11 77.75 78.29 78.41 78.57 78.84 78.12 78.04 77.82 77.33 78.34 78.30 78.05 65.21 63.67 65.64 75.35 76.53 77.61 78.32 78.10 79.00
78.11 77.61 77.67 77.59 78.06 78.26 77.42 77.70 77.72 77.35 77.87 78.24 78.23 63.72 62.83 66.33 75.43 75.38 77.42 77.53 78.56 78.85
78.44 78.19 77.79 77.98 78.21 78.52 77.38 76.93 76.98 77.10 78.24 73.73 78.39 65.75 61.04 66.10 75.31 75.67 74.92 78.08 79.26 68.06
77.93 78.48 78.57 79.07 78.74 78.24 77.54 77.77 77.96 77.30 78.41 78.84 76.83 76.87 59.92 59.09 75.66 74.92 74.90 74.77 74.93 76.07

GFSNIL_sfc_wetblb_063.txt.gz
Wetbulb
78.22 74.66 74.60 77.30 75.16 74.21 73.92 74.93 80.69 78.85 78.35 78.79 79.00 78.24 79.45 77.23 76.75 79.28 76.43 77.23 77.86 74.45
77.66 76.47 74.71 77.89 78.72 76.41 78.10 75.72 76.54 77.71 78.24 78.22 78.06 79.40 80.38 76.84 78.72 77.45 78.05 77.88 77.93 75.83
77.62 77.83 77.98 78.84 79.47 77.99 78.74 79.45 77.87 78.09 77.47 77.95 79.04 79.01 80.80 78.95 79.68 78.90 77.47 76.12 78.71 78.71
77.37 76.97 77.87 78.46 79.10 79.21 79.24 80.17 79.36 79.11 78.18 77.57 77.70 78.79 80.06 79.98 78.85 78.79 78.92 78.95 78.11 78.95
78.30 77.45 76.97 77.66 78.36 79.94 79.62 79.57 80.00 79.26 79.02 77.76 77.34 78.98 79.49 77.68 77.90 77.22 77.50 78.12 79.17 77.40
77.44 77.77 77.13 78.14 78.49 79.35 79.71 79.87 78.02 79.12 79.43 78.57 77.77 78.59 79.63 79.83 78.71 78.43 78.34 78.53 78.72 78.50
77.12 77.55 77.31 78.40 78.88 79.03 79.74 79.76 79.40 79.95 79.78 79.08 78.37 78.15 77.92 78.66 78.85 79.05 78.21 78.76 78.82 79.04
77.92 78.11 78.34 77.82 78.97 79.16 79.64 79.70 80.16 80.05 79.84 79.82 78.16 76.61 77.96 78.47 78.63 79.04 78.28 78.79 78.72 78.82
78.02 78.18 78.02 78.23 78.49 79.38 79.49 79.83 79.92 79.81 79.74 79.25 76.75 69.60 67.48 74.64 77.22 78.21 78.62 78.44 79.39 79.65
78.01 77.89 78.02 78.26 78.76 79.04 79.36 80.15 79.97 79.79 79.81 79.55 79.79 66.38 65.15 67.35 76.13 77.34 77.92 78.50 79.23 78.43
78.56 78.34 78.77 78.90 78.64 79.19 79.57 79.55 79.52 79.69 80.00 80.07 79.60 66.54 63.13 65.64 76.68 76.56 77.38 78.82 79.19 79.14
78.75 78.69 78.83 78.62 78.96 79.48 79.63 79.52 79.39 79.93 80.11 80.17 79.79 64.79 62.85 66.09 76.35 76.24 77.53 78.15 78.26 78.58
79.43 79.47 79.16 79.46 79.66 80.03 80.21 79.70 78.44 79.21 80.32 75.87 80.39 66.34 61.39 66.15 75.88 76.10 75.64 78.22 78.90 68.55
79.85 79.87 80.23 80.45 80.45 80.28 79.89 78.68 79.52 79.43 79.94 80.27 78.54 78.96 60.71 59.38 76.74 75.56 75.28 75.18 75.23 76.28

GFSNIL_sfc_wetblb_066.txt.gz
Wetbulb
76.64 74.79 75.25 77.55 75.57 77.66 75.05 75.96 77.44 78.39 78.48 78.85 78.91 78.64 78.72 77.54 77.83 77.80 77.77 77.44 77.80 76.17
76.01 75.75 74.02 76.79 78.53 76.50 78.05 77.69 77.89 78.31 78.87 79.20 78.20 78.27 78.46 76.62 76.95 76.71 77.66 77.94 77.87 77.51
73.66 75.47 75.88 74.28 77.81 76.72 78.20 77.81 77.83 78.36 78.11 78.11 79.29 79.05 78.27 77.10 77.21 77.13 76.21 76.78 77.13 77.32
75.02 74.61 74.36 75.24 74.72 76.33 76.86 80.45 79.04 79.96 78.68 78.14 77.69 79.31 78.84 77.71 77.09 76.67 76.48 77.68 77.83 76.95
76.52 75.46 74.63 73.28 76.29 77.61 78.50 78.22 80.79 78.73 79.54 78.00 77.75 78.12 77.88 77.18 75.93 76.82 76.27 77.09 77.38 77.35
75.82 75.99 75.27 73.84 75.20 77.11 76.49 77.71 77.53 79.32 77.74 78.09 77.36 77.14 77.50 77.90 77.32 76.91 77.44 77.41 77.75 77.39
75.63 75.95 75.47 75.80 74.30 76.05 77.80 77.06 77.32 77.44 78.13 77.94 77.61 76.97 76.91 78.05 77.44 77.55 77.16 78.08 77.49 77.80
76.36 76.31 76.37 75.66 76.05 75.91 76.08 76.94 77.80 77.44 77.80 78.08 77.72 77.17 76.24 76.44 77.18 77.26 77.41 77.63 77.49 77.89
75.87 76.22 76.30 76.10 76.05 76.35 76.39 76.95 77.50 77.49 77.44 77.42 77.64 70.50 68.38 74.03 75.43 77.35 76.66 76.26 76.93 78.06
75.96 75.66 75.88 76.41 75.50 76.42 76.06 76.89 76.95 77.25 77.66 77.47 77.96 67.31 65.94 68.47 75.47 75.18 75.84 76.84 76.50 76.86
75.93 75.36 76.21 75.98 76.05 75.45 76.62 76.24 76.90 77.26 77.65 77.80 78.11 67.86 63.77 66.02 73.97 75.08 75.85 76.29 76.17 76.57
75.47 75.77 75.94 75.80 75.82 75.95 76.09 76.65 76.60 77.18 77.57 77.53 77.83 65.86 64.31 64.90 72.97 73.81 74.30 75.11 75.71 76.77
76.16 76.30 76.05 76.15 76.14 76.62 76.68 76.49 77.15 77.19 77.77 74.44 77.79 67.40 62.61 64.90 74.75 73.66 73.92 75.25 75.68 67.67
78.42 76.61 77.42 77.33 77.39 77.17 77.00 77.13 77.25 77.19 77.83 78.25 77.10 77.10 61.39 59.43 75.00 74.55 74.43 74.17 74.55 75.79

GFSNIL_sfc_wetblb_069.txt.gz
Wetbulb
72.10 70.60 71.21 72.23 71.76 73.33 73.63 73.05 73.40 74.87 73.50 73.99 74.27 74.54 73.73 72.86 73.28 73.22 73.01 71.66 72.00 71.93
72.79 70.27 70.63 71.34 72.83 72.40 71.74 73.48 73.65 75.54 74.27 74.92 74.51 74.46 74.00 72.64 72.39 73.03 73.32 72.72 72.14 72.61
71.55 72.75 71.07 71.00 71.94 72.44 71.05 72.80 74.07 75.26 75.12 75.62 74.24 73.74 74.07 71.93 73.11 72.34 72.37 72.03 72.61 71.74
69.98 72.50 71.96 70.82 70.31 72.38 72.27 73.45 75.20 75.22 74.84 74.61 75.16 74.67 74.13 72.31 73.42 72.31 72.47 72.47 73.02 72.92
70.83 71.21 72.21 70.94 70.09 71.93 71.41 72.31 74.64 75.50 75.33 74.56 73.77 74.19 74.23 72.57 73.00 73.47 72.54 72.78 72.72 73.09
72.54 70.28 71.14 71.00 70.93 70.64 73.98 72.04 73.16 74.34 74.14 73.86 74.27 73.82 73.96 74.37 73.41 73.02 73.02 72.75 73.23 73.11
72.72 72.87 70.70 71.18 70.17 72.73 73.38 74.05 74.00 74.42 74.17 74.54 73.84 73.52 73.65 73.99 74.11 73.84 73.86 74.41 74.22 74.39
73.48 73.57 73.71 72.20 71.30 70.00 73.70 73.11 73.44 73.77 74.34 74.64 74.88 74.86 73.27 73.65 74.42 74.19 73.80 73.66 74.12 74.59
73.84 73.75 73.58 73.33 72.93 70.49 71.04 74.07 73.42 73.23 74.17 74.52 75.61 70.70 69.26 72.46 73.13 74.46 74.24 74.04 74.03 74.59
73.82 73.69 73.50 73.78 72.96 72.65 70.71 71.60 73.03 74.16 74.54 74.25 75.09 67.83 67.23 69.41 73.33 72.42 73.92 74.20 73.99 73.86
73.46 73.44 73.66 73.54 73.29 73.14 73.35 72.59 72.68 73.28 74.46 74.77 74.97 67.37 65.38 67.23 72.39 72.66 72.55 73.74 74.47 73.93
73.35 73.30 73.51 72.93 73.31 73.29 73.60 73.67 73.19 74.30 74.45 74.53 75.05 66.08 65.01 64.69 68.14 71.53 72.12 72.88 73.28 73.56
73.31 73.60 73.00 73.57 73.35 73.98 73.41 73.27 74.30 73.75 74.63 72.26 75.00 66.21 63.76 64.77 72.38 69.40 70.43 71.33 71.50 66.85
73.45 73.49 73.69 73.74 74.21 73.74 73.87 73.46 73.10 73.89 74.44 74.99 74.36 74.49 62.48 60.41 73.80 73.16 71.56 71.11 71.40 72.76

GFSNIL_sfc_wetblb_072.txt.gz
Wetbulb
68.94 69.08 69.44 70.72 71.34 71.89 72.55 73.29 73.51 74.61 73.07 73.05 72.68 72.78 72.56 71.56 71.82 72.22 71.57 71.12 70.52 70.88
71.07 69.34 69.01 70.46 71.33 72.11 72.40 72.45 72.58 74.13 72.87 73.01 72.95 72.58 72.21 71.20 71.01 72.10 71.67 71.78 70.32 70.80
69.77 71.32 68.90 70.03 70.00 71.60 71.33 71.65 72.01 74.15 72.96 72.58 73.36 72.88 72.35 71.36 71.38 71.33 70.83 71.37 70.61 70.08
69.12 70.02 70.20 69.43 69.81 70.56 70.29 71.42 72.02 73.73 73.31 73.06 73.18 72.44 72.28 71.24 71.08 71.33 70.68 70.69 70.41 70.50
68.76 69.62 70.70 70.22 69.21 70.15 70.63 71.54 73.25 73.81 73.76 73.68 73.88 72.52 72.15 71.12 71.84 71.77 70.91 71.02 70.94 71.35
69.10 68.43 69.59 71.13 70.66 68.51 70.61 70.51 73.20 73.53 73.71 73.71 73.70 73.72 73.41 72.62 71.50 71.66 72.30 71.45 71.17 71.44
70.88 69.43 68.52 70.45 70.56 70.15 69.13 70.42 70.95 73.41 73.58 73.63 73.50 73.13 73.48 73.49 72.57 71.72 71.96 72.33 71.87 71.97
71.92 71.95 70.30 68.76 70.39 69.78 70.55 70.63 72.02 71.92 73.21 73.41 73.47 73.62 72.71 72.86 72.59 72.12 71.96 72.47 73.05 73.20
71.26 72.22 71.95 70.23 69.14 69.46 69.16 71.23 71.31 72.76 72.76 72.93 73.87 69.08 68.45 71.52 72.41 72.52 72.28 72.06 72.23 72.74
72.32 71.78 72.00 72.38 70.76 69.92 68.99 68.77 71.37 71.17 72.55 72.86 73.81 66.71 66.52 68.77 72.47 72.39 72.98 72.84 72.82 72.74
73.05 72.72 72.51 72.38 72.27 71.66 71.12 68.89 69.20 72.29 71.57 71.76 73.09 65.95 64.85 67.14 72.34 72.09 71.33 72.74 73.62 73.21
73.43 73.14 72.88 72.24 72.27 72.55 72.11 71.14 69.76 70.30 72.79 73.14 72.91 64.28 63.95 65.49 71.70 72.19 71.85 71.47 72.16 73.19
71.06 72.90 72.84 73.11 72.88 73.13 72.92 72.40 72.41 71.41 71.39 69.44 72.82 65.27 62.61 64.12 72.46 70.73 71.13 71.56 71.38 66.02
69.05 72.59 73.50 73.61 73.32 73.38 73.17 72.75 72.58 72.36 72.59 73.02 72.49 72.77 61.52 60.58 72.89 72.84 71.23 70.39 70.53 71.25

GFSNIL_sfc_wetblb_075.txt.gz
Wetbulb
67.56 68.37 68.19 69.22 69.47 70.41 71.04 71.80 72.23 72.86 72.60 71.88 71.42 71.78 71.11 70.81 70.84 71.11 69.73 69.74 70.01 69.82
67.86 67.56 67.93 69.49 69.83 70.54 70.85 72.51 72.31 73.48 72.71 72.21 72.03 71.72 71.22 70.76 70.46 70.89 70.64 70.42 69.60 69.43
69.59 69.29 68.03 68.41 70.02 70.46 70.64 70.78 71.59 73.05 72.15 71.57 72.03 71.80 71.27 70.49 70.32 70.24 70.36 70.72 70.22 69.39
68.90 69.26 69.05 68.30 68.84 69.71 70.79 70.72 70.75 72.38 72.41 70.84 71.83 71.91 71.10 70.62 70.50 70.28 70.13 69.42 69.54 69.27
68.53 68.62 69.26 69.03 68.55 68.90 69.32 69.87 71.21 71.42 72.34 71.94 71.89 71.96 71.37 70.98 71.54 70.19 69.86 70.37 69.72 69.80
68.11 67.92 68.19 69.28 69.60 68.29 68.97 69.46 70.76 71.95 72.19 72.10 72.33 72.16 71.65 71.30 70.75 70.59 70.76 70.86 70.38 70.19
68.36 67.84 68.31 68.62 69.13 69.77 68.45 69.18 69.92 72.06 72.51 72.76 72.83 72.96 72.70 71.95 71.35 70.66 70.97 71.47 71.38 71.06
69.60 69.08 68.26 67.96 68.53 68.90 69.51 69.18 69.38 70.49 72.19 72.43 72.95 73.12 72.64 72.96 72.60 72.21 71.25 71.26 71.58 71.45
70.03 70.14 68.93 67.88 67.57 68.44 68.60 69.33 68.35 69.31 70.28 71.72 73.17 68.50 67.68 71.32 72.24 71.65 71.71 70.99 71.18 71.74
69.49 69.59 70.32 69.64 67.69 67.22 68.12 68.23 68.45 69.12 70.43 70.23 71.88 66.07 65.87 68.10 72.38 71.71 71.51 71.37 71.28 71.05
70.82 69.64 70.45 71.01 69.86 68.37 68.06 68.04 67.67 67.99 69.35 71.01 71.44 65.41 64.10 66.32 71.54 71.51 71.51 71.75 71.88 71.79
71.54 71.33 70.66 70.58 70.99 70.99 69.78 68.85 68.75 68.31 67.97 69.14 70.01 63.94 63.41 64.60 70.30 71.35 71.50 71.42 71.22 72.18
69.98 71.97 72.48 72.15 71.31 71.85 71.97 71.07 70.89 69.66 69.05 67.62 70.61 62.37 61.60 64.05 72.13 71.32 71.58 72.35 71.64 65.14
66.76 68.72 69.51 71.80 73.02 72.45 71.84 72.17 71.42 71.09 70.64 69.65 69.94 71.17 60.16 59.84 71.07 71.35 71.14 71.26 71.33 71.54

GFSNIL_sfc_wetblb_078.txt.gz
Wetbulb
68.87 69.09 69.31 70.00 70.24 70.65 71.23 72.25 73.53 73.65 73.52 73.09 73.30 73.02 72.50 72.31 72.20 72.40 72.10 72.19 72.79 72.27
68.17 68.58 68.89 69.84 70.90 71.20 72.12 72.96 73.35 74.02 73.82 72.95 72.31 73.13 73.17 72.41 71.94 73.06 73.41 72.66 72.47 71.88
68.20 68.52 68.96 69.74 70.38 71.05 72.14 72.44 73.56 73.90 74.32 73.48 72.96 72.56 72.77 72.66 72.77 72.62 72.51 72.52 72.72 72.65
69.04 68.79 68.25 68.90 70.22 71.34 72.22 72.16 72.40 73.39 74.12 73.75 72.63 72.72 72.49 72.52 72.93 72.33 72.44 72.39 72.34 72.28
69.49 69.78 69.10 68.56 69.25 70.20 71.27 72.06 72.50 72.75 73.44 73.75 73.22 73.16 73.19 72.13 73.28 72.18 71.91 72.43 72.14 72.07
68.98 68.70 69.64 69.72 69.57 69.81 70.29 70.82 71.66 72.55 72.54 73.07 73.33 73.32 73.47 72.93 73.10 72.90 72.71 72.52 72.36 72.67
68.52 68.47 68.88 69.78 70.03 69.68 70.09 70.26 70.73 71.85 72.61 73.26 73.54 73.67 73.59 73.29 72.93 72.83 72.87 73.12 73.10 73.37
69.03 69.05 69.05 69.03 69.27 70.35 69.93 70.13 70.67 70.99 72.39 73.28 73.70 73.43 73.71 73.67 73.22 72.91 72.66 72.97 73.12 73.45
69.73 69.53 68.73 68.65 68.77 69.11 69.98 69.92 69.72 70.24 71.27 72.39 73.31 68.55 67.77 72.01 73.58 73.74 73.48 73.24 73.61 73.92
70.12 69.87 69.84 68.94 68.57 68.15 68.63 69.77 69.30 69.61 70.12 70.88 72.24 65.88 65.97 67.80 73.73 73.48 73.50 73.63 73.59 73.06
69.72 69.71 70.34 70.40 68.71 68.21 68.34 68.55 68.96 69.38 69.92 70.05 70.77 64.22 64.35 66.44 72.74 73.31 73.33 73.23 73.36 73.18
71.20 70.11 70.18 70.21 70.73 69.98 68.84 68.11 68.46 68.98 69.06 69.87 70.34 62.34 62.42 65.01 72.04 72.32 72.91 73.31 73.48 73.58
66.35 69.06 70.80 70.34 70.70 71.39 71.26 69.80 69.36 69.12 69.22 66.53 69.48 62.19 60.63 63.28 70.92 70.45 71.23 72.81 73.44 65.32
64.80 66.11 68.43 70.18 72.58 71.84 71.93 71.54 71.08 70.25 70.57 69.83 68.25 69.02 58.86 59.37 71.00 71.26 70.99 71.34 71.76 73.46

GFSNIL_sfc_wetblb_081.txt.gz
Wetbulb
74.85 74.18 74.38 75.38 74.55 74.57 74.93 75.59 77.12 77.78 77.56 77.52 77.21 76.88 76.77 75.89 75.85 76.47 76.01 75.84 76.44 76.11
74.26 74.35 74.49 75.44 75.97 75.15 76.45 75.76 76.87 77.32 77.39 77.72 77.24 77.29 77.01 75.41 75.78 76.57 76.38 75.97 76.38 75.66
73.28 74.11 74.69 74.83 75.22 75.86 76.31 76.72 76.44 76.94 77.17 77.33 77.38 77.14 77.03 76.03 76.53 76.48 75.99 75.87 76.53 76.32
73.45 73.12 73.73 73.45 74.42 75.55 76.21 76.81 76.83 77.19 77.11 77.36 77.03 77.43 77.18 76.89 76.36 76.21 76.09 76.43 76.08 76.02
73.61 73.45 72.84 73.15 73.73 75.11 75.63 76.44 76.78 77.22 76.99 77.19 77.17 77.35 76.71 76.38 76.11 75.84 75.64 75.86 75.99 75.51
71.63 72.51 72.90 73.34 73.65 74.20 74.47 75.42 75.66 76.55 76.68 76.91 77.00 77.16 77.18 77.20 76.59 76.58 76.44 75.96 75.88 75.83
71.65 71.63 72.08 74.39 74.25 73.90 74.24 74.63 74.56 75.55 75.86 76.52 77.41 77.20 77.08 77.00 76.96 76.97 76.86 76.74 76.57 76.46
73.51 73.70 72.45 71.63 74.16 74.30 74.35 74.11 74.72 74.83 75.08 75.68 75.75 75.86 76.89 77.00 76.78 76.60 76.58 76.83 76.83 76.65
72.93 73.74 73.52 73.46 73.04 74.69 74.23 73.95 74.12 73.97 74.36 74.75 74.18 68.11 67.75 74.11 76.55 76.81 76.52 76.10 76.75 77.08
72.87 72.72 73.20 73.38 73.46 73.87 73.79 74.27 73.69 73.80 74.16 74.81 75.83 65.49 65.63 68.24 75.69 76.43 76.80 76.80 76.78 76.37
72.41 72.42 73.29 73.19 72.74 73.35 73.02 73.15 73.55 73.28 74.28 74.57 74.61 64.59 63.73 66.19 75.11 76.44 76.71 76.99 77.25 77.08
66.88 71.26 72.63 72.69 72.85 72.99 72.71 72.56 72.46 72.94 73.50 73.88 74.39 62.86 62.20 65.66 73.92 74.42 76.52 77.16 77.22 77.25
66.03 67.18 67.60 72.47 73.63 74.06 74.05 73.03 72.96 72.60 73.69 69.97 74.25 64.77 60.19 63.65 72.20 72.99 73.05 75.55 77.20 66.83
63.44 64.89 66.91 68.39 69.92 73.05 74.02 74.42 74.15 73.19 73.89 74.10 72.94 72.98 59.80 58.45 72.28 72.66 72.81 72.74 73.08 73.50

GFSNIL_sfc_wetblb_084.txt.gz
Wetbulb
77.37 76.06 75.92 76.14 74.66 75.00 75.44 76.02 77.59 78.80 77.91 77.47 77.75 78.13 78.04 76.15 75.67 76.95 75.76 76.54 77.04 74.95
77.11 76.76 75.86 76.44 76.71 75.69 76.87 76.44 77.79 78.38 76.93 77.47 77.96 78.52 78.61 76.06 77.10 77.14 76.90 76.52 77.05 76.09
76.51 77.09 76.93 76.64 76.32 76.77 76.12 77.49 77.55 78.27 78.26 77.31 78.21 78.47 78.42 77.04 77.70 77.12 75.72 75.60 76.74 77.04
75.93 76.20 76.58 76.09 76.22 76.31 77.02 77.66 78.30 78.49 78.45 77.41 77.76 78.47 78.45 77.65 77.30 76.45 76.49 76.94 77.04 77.29
76.22 76.38 75.67 75.74 75.98 76.35 76.60 77.05 77.97 78.57 78.51 78.10 77.44 78.33 78.27 76.95 76.27 76.61 76.36 76.31 76.90 76.75
74.96 75.53 74.74 75.38 76.10 76.35 76.36 76.78 76.85 77.50 77.87 77.90 77.31 77.86 78.90 78.12 77.55 77.47 77.12 77.25 77.03 76.65
73.95 73.75 74.20 74.63 75.91 76.07 76.52 76.30 76.16 76.67 77.15 77.53 77.75 77.13 77.82 78.32 78.10 77.78 78.04 78.20 77.91 77.50
75.37 75.29 74.42 75.10 74.80 75.69 76.22 76.46 76.44 76.06 76.17 76.64 76.86 76.70 77.02 77.43 78.01 78.39 78.26 78.30 78.46 78.20
75.15 75.49 75.61 75.80 75.37 75.08 75.95 76.40 76.62 76.19 75.87 75.31 74.33 68.65 67.31 74.14 78.05 77.66 77.96 77.50 78.26 78.61
74.11 74.22 74.83 75.42 75.67 75.63 75.18 75.59 76.65 76.06 76.17 76.40 76.53 65.73 64.59 68.19 75.89 76.43 77.53 77.92 77.56 77.36
69.85 72.01 74.52 74.89 75.09 75.49 75.59 75.49 75.54 75.74 76.54 76.55 76.56 65.00 63.86 65.76 75.29 76.48 77.91 78.03 77.72 78.13
62.29 65.89 69.28 72.94 74.49 75.38 74.61 75.37 75.34 75.61 75.98 76.44 76.32 63.51 62.74 66.36 74.57 74.21 76.41 77.76 78.78 79.06
61.62 63.47 64.23 69.16 72.95 75.35 77.22 75.02 74.85 75.11 76.09 72.16 76.21 65.80 60.60 64.84 73.87 73.65 73.34 75.88 78.15 68.20
61.15 61.45 62.84 64.12 68.47 72.90 75.43 76.06 76.22 75.80 76.02 76.81 75.07 75.19 60.06 58.80 74.06 73.78 73.73 73.50 73.39 74.04

GFSNIL_sfc_wetblb_087.txt.gz
Wetbulb
78.00 76.19 75.38 76.20 76.86 74.23 77.33 75.93 80.02 78.56 77.95 77.89 77.67 77.51 78.03 76.79 75.68 78.15 75.83 76.88 78.57 76.16
78.23 78.05 77.02 79.18 77.44 75.70 77.46 74.94 77.14 77.74 77.48 77.76 77.94 78.18 78.40 76.36 76.94 77.47 77.06 76.97 77.47 75.96
77.28 77.81 77.85 77.24 77.42 77.62 78.03 77.15 73.67 77.60 77.84 77.73 77.79 77.67 78.28 78.26 78.88 77.40 76.40 75.15 78.66 78.58
77.03 77.43 77.66 77.03 76.94 77.19 77.11 77.55 77.63 78.85 77.70 78.05 77.83 78.11 78.81 79.20 77.76 77.14 77.31 77.67 77.19 78.07
77.02 77.35 76.74 77.25 77.22 78.02 78.04 77.44 77.54 77.64 78.04 77.53 77.88 79.11 78.45 76.83 76.43 76.29 76.06 76.24 76.84 76.36
76.61 76.52 76.54 77.10 77.38 78.31 77.81 77.68 76.66 77.47 78.84 77.09 77.57 78.40 78.57 78.02 77.82 76.83 76.90 76.86 77.19 76.96
76.15 76.72 76.74 77.81 77.86 77.02 78.45 78.07 77.80 78.05 78.79 78.30 77.83 77.56 77.47 77.92 78.19 78.33 77.68 78.02 77.97 77.72
76.31 76.73 76.65 76.91 76.96 76.71 78.43 78.10 78.15 78.29 78.05 78.44 77.07 76.54 78.40 78.33 77.82 78.70 77.78 78.97 78.99 78.91
73.49 74.45 76.39 76.99 76.39 76.64 76.16 78.04 79.21 78.22 78.00 77.61 75.13 68.77 67.60 74.63 77.61 78.50 78.28 77.71 78.96 80.06
68.85 69.38 70.39 74.52 76.34 76.88 77.21 77.05 78.42 78.69 78.32 78.39 78.60 66.86 64.69 67.84 75.93 77.52 78.44 78.92 78.72 78.62
64.47 66.61 67.91 70.10 74.20 76.17 76.17 75.79 77.32 77.16 78.69 78.80 78.50 66.29 63.71 65.44 76.11 76.72 77.69 78.56 79.66 79.30
61.82 62.35 64.60 67.32 68.17 72.79 75.60 76.99 75.87 76.61 77.19 78.17 78.64 65.28 62.72 65.79 75.13 74.47 76.11 77.47 78.30 78.61
64.70 63.11 61.61 62.71 64.93 67.65 71.77 74.88 76.90 76.10 77.15 73.13 77.89 67.55 61.82 64.66 74.85 75.08 74.89 76.85 77.19 68.27
64.52 64.68 64.36 63.51 64.56 65.20 66.88 70.05 73.54 75.52 77.26 77.25 75.86 76.94 60.63 59.47 75.71 74.65 74.88 75.02 75.30 76.23

GFSNIL_sfc_wetblb_090.txt.gz
Wetbulb
78.42 77.20 75.64 76.30 75.78 73.09 75.01 74.63 77.85 77.59 78.86 79.66 78.75 78.71 78.79 78.08 77.37 77.66 77.37 76.96 77.84 76.42
78.18 77.73 76.46 78.27 79.05 78.46 76.88 73.44 74.86 76.23 78.14 79.21 78.09 78.23 78.80 77.55 77.61 77.62 77.82 77.62 77.58 77.41
77.82 78.42 78.68 79.21 76.13 79.88 76.24 72.71 73.28 73.19 73.37 77.95 78.59 77.92 77.75 77.24 76.92 77.07 77.53 76.11 77.12 76.89
77.17 77.73 78.49 78.24 79.37 79.20 80.20 74.58 72.72 67.57 68.23 75.61 77.99 78.52 78.57 76.73 75.11 76.22 76.36 77.58 76.68 77.00
77.44 77.66 77.47 77.73 78.21 79.22 78.95 79.47 77.17 73.85 75.15 76.85 78.54 77.21 76.74 77.36 76.56 75.84 76.14 76.85 76.62 76.09
77.00 77.25 77.20 77.81 77.93 78.83 78.90 78.53 77.65 77.85 78.45 78.12 77.64 78.32 77.22 76.66 77.55 76.72 76.74 77.20 77.04 76.57
76.48 76.64 77.03 78.18 77.80 78.18 78.70 77.99 77.61 78.06 78.18 77.52 77.36 77.93 78.15 78.05 76.76 76.79 76.56 77.54 77.41 77.51
72.07 75.61 78.77 78.83 77.58 78.57 79.27 78.18 78.23 78.05 77.70 78.43 77.34 77.19 76.87 77.20 77.75 76.94 76.60 77.32 77.63 77.31
69.39 71.28 72.96 74.84 77.05 77.55 78.02 77.85 77.86 77.35 77.56 76.94 76.21 69.80 67.74 74.67 76.36 77.56 77.13 75.81 76.79 77.56
67.46 68.33 69.30 70.74 73.01 75.63 76.67 77.70 76.94 76.42 77.62 76.85 77.47 68.57 65.20 66.70 75.48 76.89 76.74 77.25 76.37 75.87
64.33 64.86 66.12 67.47 69.05 69.94 72.28 75.66 76.76 76.22 76.53 76.53 76.81 67.74 66.03 65.96 72.57 74.50 75.53 76.93 77.26 77.02
64.37 64.36 64.38 64.04 65.31 67.44 68.66 70.43 74.32 75.61 76.23 76.58 76.37 65.49 63.19 65.76 74.05 74.03 73.96 74.89 75.98 76.08
65.83 65.40 65.25 65.35 64.81 66.68 68.26 69.30 71.72 72.34 75.38 72.37 75.33 67.66 61.81 64.43 74.58 74.33 74.20 74.50 74.59 67.58
64.75 65.19 66.37 66.57 67.02 66.10 66.04 67.83 69.18 70.83 73.29 75.09 73.91 74.50 62.11 59.64 74.09 74.83 74.25 74.15 74.24 75.23

GFSNIL_sfc_wetblb_093.txt.gz
Wetbulb
71.96 71.32 70.34 71.55 71.09 71.78 71.47 71.89 74.33 74.02 74.24 73.95 73.83 73.43 73.59 72.02 72.53 71.74 71.69 70.92 71.54 72.21
72.66 72.05 72.52 72.26 73.92 72.12 72.44 74.54 75.30 74.30 74.45 74.48 74.13 73.31 73.65 72.50 72.72 71.84 71.69 71.20 72.07 71.69
73.29 73.10 73.31 73.44 73.06 71.92 71.96 72.19 72.40 72.45 73.18 73.64 74.22 73.50 73.24 72.46 72.53 72.41 72.57 72.59 70.95 71.93
73.84 74.07 73.97 73.47 73.95 73.27 71.02 72.02 70.79 69.78 69.92 70.49 72.66 73.74 73.12 72.58 72.13 71.31 71.68 72.25 72.02 71.13
74.41 73.90 73.04 73.90 74.40 73.36 72.04 71.80 70.64 67.07 65.65 67.56 72.21 74.05 73.47 72.70 73.14 71.60 71.37 71.86 71.91 71.33
73.38 74.42 72.81 73.75 74.38 74.72 74.20 72.89 72.05 71.40 69.62 72.18 73.27 73.95 73.31 73.08 72.66 72.77 72.55 72.64 72.42 72.53
69.54 70.59 72.38 74.54 74.62 75.06 75.07 74.57 73.83 73.75 73.47 74.49 74.13 73.90 74.39 73.27 72.77 72.70 72.86 73.85 73.87 73.55
69.54 70.24 69.62 70.28 73.22 74.31 73.87 75.14 74.45 73.63 73.90 74.82 74.30 74.73 73.97 73.95 73.61 72.40 72.36 73.10 73.97 74.14
67.78 68.21 68.48 69.43 69.99 72.92 72.70 73.12 73.77 74.11 74.19 73.75 75.28 70.71 69.17 72.59 73.21 74.38 73.10 72.41 73.31 74.00
65.80 65.58 65.87 67.71 68.12 68.30 68.73 72.02 72.34 72.73 72.21 73.30 74.29 68.59 66.72 66.67 70.42 72.92 73.00 73.57 73.11 73.32
64.29 64.38 64.58 64.96 65.51 65.91 66.99 67.91 69.20 71.21 73.23 73.11 73.74 68.03 64.31 66.37 68.50 69.24 70.81 72.95 74.25 73.63
62.94 62.77 63.71 63.57 64.43 64.78 65.75 66.59 67.74 69.36 70.37 72.33 72.14 65.68 63.69 65.09 69.88 69.43 70.27 71.30 72.34 73.49
60.42 60.13 60.90 62.22 62.47 63.64 64.21 64.86 67.26 67.11 69.10 68.41 72.01 66.39 62.64 63.44 69.67 70.98 71.06 71.66 71.40 66.16
58.69 59.61 58.77 60.40 60.45 60.67 61.46 63.74 64.59 65.99 67.29 69.69 70.05 68.79 58.82 59.12 67.42 71.19 72.14 72.04 72.33 72.60

GFSNIL_sfc_wetblb_096.txt.gz
Wetbulb
70.78 70.49 70.05 69.76 69.35 70.23 70.85 71.40 71.84 72.80 72.82 72.73 72.43 72.18 72.05 70.90 71.47 70.97 70.47 69.81 69.57 69.90
71.24 70.59 69.47 69.99 70.69 69.53 71.06 72.41 73.47 73.23 73.34 72.99 73.16 72.29 72.49 71.72 71.82 71.35 70.09 68.83 70.67 70.21
71.70 71.00 71.11 71.16 71.20 72.15 71.55 72.64 72.82 73.08 73.42 73.36 73.22 72.82 72.37 71.58 71.23 70.84 70.92 71.20 69.88 69.66
72.24 72.12 71.29 71.99 72.09 71.22 71.28 71.21 71.43 71.60 71.99 72.06 72.67 72.78 71.47 71.13 71.54 70.66 70.81 70.60 70.95 70.54
71.61 71.41 72.00 72.40 72.54 72.06 70.69 70.79 70.15 69.79 69.43 69.68 70.52 71.75 72.39 71.46 72.12 70.80 69.76 70.20 70.22 70.47
69.46 71.54 71.76 72.10 72.70 72.44 70.39 70.27 69.89 67.89 65.67 64.81 68.08 71.16 72.57 72.66 72.29 72.17 71.48 70.32 70.64 70.95
69.09 69.41 69.05 70.20 71.73 71.93 72.35 71.31 70.77 70.67 69.76 69.29 71.02 72.02 72.99 72.58 71.36 71.16 72.14 72.24 72.34 71.82
68.17 69.14 67.65 68.37 69.12 70.40 72.29 72.67 72.93 72.41 72.51 72.58 73.38 73.96 72.52 73.09 72.45 71.15 70.89 71.56 72.13 72.84
66.93 66.95 67.36 68.03 68.37 68.69 68.89 71.61 72.38 72.99 71.99 71.84 73.77 69.93 68.01 71.28 72.30 72.84 71.88 71.27 71.44 72.16
64.69 64.53 64.92 65.26 65.61 66.30 66.77 67.97 68.39 70.51 71.70 71.50 72.41 66.87 65.22 67.13 69.78 71.43 72.00 72.52 72.23 72.08
64.55 64.40 63.83 64.29 64.06 64.35 65.83 66.54 67.24 67.90 69.07 69.86 72.29 66.01 64.23 65.43 68.53 68.69 68.98 70.83 72.27 72.39
61.68 61.72 63.67 63.29 63.73 64.28 64.20 64.61 65.44 67.07 67.56 68.37 69.41 63.50 61.68 64.03 69.78 69.86 69.51 70.16 70.36 71.44
57.83 58.41 59.57 60.09 61.12 62.94 63.48 64.55 65.42 65.76 66.55 65.49 68.44 60.03 58.76 62.23 68.87 69.00 69.95 70.84 71.11 65.46
54.80 55.71 56.33 56.83 58.07 59.77 59.27 59.50 61.14 63.92 65.68 67.34 65.65 62.79 56.59 57.86 66.38 66.63 68.10 70.16 71.32 70.02

GFSNIL_sfc_wetblb_099.txt.gz
Wetbulb
69.06 68.23 68.98 68.97 69.69 69.83 69.92 70.69 71.15 71.54 71.64 71.17 70.16 69.63 70.80 70.57 70.63 69.95 69.33 69.30 68.55 69.35
69.69 69.86 69.13 69.33 69.32 69.85 70.24 71.28 71.66 71.79 71.90 72.12 71.98 71.32 71.14 70.44 70.36 70.77 69.62 69.15 68.39 69.60
69.75 70.74 70.11 69.37 69.37 70.17 70.04 70.58 71.89 71.98 72.16 72.36 72.35 72.03 71.05 70.78 70.34 69.74 69.49 70.17 69.68 68.73
70.75 70.22 69.94 70.46 70.92 71.51 71.08 71.27 71.38 71.84 72.02 72.27 72.14 72.16 71.27 70.76 70.56 70.05 69.36 69.69 69.58 69.82
70.77 70.77 70.61 70.34 70.76 71.92 71.15 70.78 71.14 70.87 70.54 70.97 71.42 71.74 71.59 70.59 71.28 70.73 69.98 69.04 69.05 69.26
69.57 69.39 70.13 70.35 70.35 71.77 71.01 69.84 70.18 69.41 68.52 68.69 68.99 69.74 71.20 72.00 71.31 70.85 70.78 71.03 69.03 69.07
68.51 66.05 66.81 67.83 69.09 70.27 71.72 69.70 69.69 69.21 67.75 66.81 65.69 67.24 70.17 71.47 71.51 71.27 71.31 71.44 70.81 70.39
67.58 68.19 67.81 67.38 67.72 68.21 69.52 71.51 70.72 70.43 70.25 69.80 69.77 71.10 70.78 71.53 72.12 70.97 70.34 70.67 71.28 71.71
67.26 67.20 66.95 66.30 66.48 66.55 66.98 68.03 68.85 70.18 71.29 70.79 72.67 69.05 66.98 70.92 71.63 71.93 71.36 70.77 70.95 71.15
64.67 64.19 64.06 64.48 64.57 64.62 64.94 66.16 66.73 67.72 69.05 69.66 70.40 65.06 63.80 65.89 69.52 70.71 70.93 71.22 71.54 71.59
62.66 63.78 63.99 63.59 63.36 63.52 64.09 64.34 65.39 66.21 67.29 67.83 69.81 62.73 62.34 64.03 67.26 68.87 68.61 69.00 70.40 70.97
58.86 61.18 60.22 59.51 61.00 62.67 63.18 63.78 64.08 65.70 65.92 66.45 67.27 61.42 59.72 62.48 67.72 68.73 68.96 69.34 69.27 69.84
55.48 56.07 56.12 57.84 58.42 60.23 60.30 60.81 62.39 63.34 65.34 64.46 67.33 57.43 57.83 61.82 67.67 67.63 68.39 69.23 69.97 63.91
51.50 53.08 53.12 54.40 55.14 55.51 57.18 57.69 59.02 61.91 66.03 66.03 64.02 62.05 56.06 57.43 62.98 62.33 63.15 64.43 64.99 67.18

GFSNIL_sfc_wetblb_102.txt.gz
Wetbulb
68.45 69.47 69.09 70.50 70.41 70.90 71.17 72.17 73.34 72.95 73.27 72.71 72.36 71.40 71.43 72.62 72.90 72.96 72.30 71.94 71.90 72.00
69.70 69.66 69.50 70.42 70.93 71.44 71.95 72.46 72.95 72.93 73.22 73.05 73.12 72.39 73.47 72.60 72.60 72.99 72.53 71.91 71.81 72.31
70.12 70.77 71.01 70.90 70.67 70.47 71.30 71.85 72.48 71.68 72.74 72.56 73.48 73.50 73.19 73.25 73.09 72.72 72.29 72.02 72.26 72.02
70.43 70.99 71.39 71.10 71.08 71.62 72.78 72.26 72.17 72.45 72.82 73.28 73.16 73.54 73.17 72.56 73.04 72.48 72.30 72.24 72.31 72.56
71.43 71.85 70.97 71.30 71.49 72.52 72.70 72.57 72.05 72.51 73.06 73.30 72.97 73.84 73.24 72.77 72.39 72.32 72.04 72.12 71.59 71.83
67.99 68.66 68.96 70.24 71.31 72.18 72.44 72.41 71.30 71.49 71.95 72.02 72.14 72.35 72.35 72.83 73.18 72.01 72.03 71.96 71.54 71.88
66.97 67.69 68.30 68.77 69.07 69.58 71.54 72.50 71.44 71.37 70.71 70.24 70.31 70.34 71.00 72.16 72.84 73.33 73.26 72.54 72.45 72.32
68.17 68.19 67.96 67.65 67.85 68.21 69.00 69.72 71.85 71.71 71.52 71.35 70.17 69.86 70.41 70.97 72.16 73.19 72.95 72.87 72.96 73.43
67.12 67.06 66.10 66.30 66.40 66.75 67.27 67.87 68.70 69.67 71.25 71.63 72.51 66.97 65.53 68.63 72.69 73.54 73.37 73.13 74.00 73.90
64.97 64.50 63.86 64.62 64.49 64.98 65.47 66.73 66.73 67.54 68.63 69.11 70.89 62.21 62.53 65.57 70.01 72.10 73.19 73.00 73.37 73.38
63.39 61.94 62.11 62.28 62.94 63.07 63.67 65.13 65.67 66.44 67.36 68.12 69.04 60.53 59.95 62.94 70.06 70.43 70.87 70.53 70.94 71.26
58.82 58.85 58.90 58.51 59.98 61.72 61.08 60.97 63.62 65.39 66.46 68.08 62.82 57.76 59.29 65.39 69.54 68.99 69.31 70.63 70.66 69.79
55.53 55.75 57.12 58.12 58.92 60.19 60.02 60.05 62.79 65.99 65.68 62.26 63.71 55.06 55.97 60.97 63.09 61.36 62.93 65.84 66.84 61.62
52.10 52.74 53.36 54.46 55.30 56.07 57.24 57.30 56.79 56.79 57.31 57.47 55.39 53.59 52.57 53.70 58.83 58.82 61.05 62.03 62.84 64.99

GFSNIL_sfc_wetblb_105.txt.gz
Wetbulb
74.71 74.04 73.68 74.20 73.96 74.44 75.29 76.64 76.87 77.42 77.32 76.20 76.01 75.71 75.83 75.96 76.34 76.65 76.71 75.54 76.43 75.81
74.25 74.17 74.32 74.88 75.17 74.95 75.93 75.41 76.54 76.90 76.85 76.85 76.67 76.00 75.90 75.65 76.11 76.76 76.79 76.59 76.62 75.43
74.64 74.65 74.92 75.03 74.92 75.08 75.59 76.32 75.97 76.27 76.64 76.69 76.89 76.97 76.72 77.02 77.07 76.66 76.18 76.04 75.95 76.31
74.56 74.86 75.28 75.05 75.23 75.38 75.65 75.72 75.53 75.79 75.64 76.05 76.42 76.88 76.91 76.69 76.81 76.31 76.34 76.12 76.02 75.92
74.37 74.66 74.44 74.62 75.29 75.57 75.32 76.17 76.08 76.19 76.34 76.62 76.43 76.75 76.84 76.02 75.98 75.91 75.54 75.59 75.71 75.59
74.20 74.33 74.73 74.74 75.05 76.06 75.82 76.26 76.06 75.21 75.74 76.21 76.43 76.41 76.65 76.77 76.40 76.26 75.99 76.01 75.45 75.32
72.28 72.62 72.50 73.22 73.44 74.39 75.87 76.17 75.91 75.55 75.28 75.41 75.30 74.70 74.95 74.95 75.18 75.92 75.74 76.34 76.33 76.26
68.73 70.71 71.21 71.58 71.78 72.65 73.79 74.30 75.58 75.65 75.53 75.32 73.95 73.69 74.40 74.71 74.79 74.57 75.40 76.32 76.45 77.10
68.82 70.36 69.33 70.19 70.19 70.69 71.51 72.30 73.53 74.22 74.73 74.28 73.68 63.35 65.00 70.69 75.73 76.41 76.37 76.16 77.05 77.38
65.73 65.65 66.53 67.87 68.43 68.84 69.52 70.52 70.52 71.54 72.64 72.29 69.87 60.71 61.78 65.69 75.32 75.32 75.33 75.60 75.47 75.59
63.51 63.77 65.17 64.77 63.80 64.73 66.72 67.74 69.26 70.77 71.40 67.11 62.77 58.02 60.01 63.99 74.41 74.21 73.23 73.08 72.95 72.95
60.89 61.56 62.86 61.57 61.53 62.90 63.90 65.52 68.47 69.14 66.27 62.81 59.48 54.49 56.43 64.55 67.68 67.59 67.79 68.91 66.90 66.30
58.97 60.98 61.15 62.16 62.53 62.23 63.30 61.77 59.85 59.78 59.39 55.56 55.87 51.92 52.85 59.42 63.81 63.55 64.30 65.35 66.32 61.07
56.64 56.35 57.28 57.95 59.03 59.72 59.31 57.71 57.77 57.10 56.87 54.49 53.50 50.49 50.77 51.64 58.26 59.88 61.07 61.41 61.91 62.90

GFSNIL_sfc_wetblb_108.txt.gz
Wetbulb
76.76 74.66 76.91 75.94 75.63 74.84 77.18 75.29 77.28 77.00 76.71 77.08 78.05 77.66 77.92 76.69 76.41 77.12 76.63 76.40 77.37 75.77
76.36 75.52 77.47 75.72 78.18 76.10 77.13 76.70 77.06 77.03 76.94 77.32 77.03 77.76 77.95 76.02 76.39 77.43 77.22 76.23 76.78 76.04
75.54 76.39 76.30 76.29 75.48 76.80 77.81 77.97 77.11 76.71 76.87 77.40 77.94 78.12 77.63 76.55 76.90 76.73 76.06 75.64 76.81 76.54
75.37 75.07 76.53 76.42 75.83 76.67 77.14 78.27 76.79 77.00 76.97 76.51 76.82 77.70 77.93 77.20 76.40 76.31 76.69 76.52 76.50 76.46
75.38 75.26 74.67 75.40 75.50 76.38 75.93 77.63 77.23 77.01 77.39 76.74 76.80 77.54 76.93 76.41 76.40 76.17 75.86 75.98 76.21 75.88
75.24 74.53 74.81 75.22 75.97 76.21 76.48 76.19 76.52 77.17 76.35 75.82 76.40 76.37 76.56 76.69 76.59 76.26 75.95 75.79 75.89 75.88
74.81 74.59 75.23 75.73 76.30 75.81 76.10 76.42 76.01 76.07 76.64 76.47 76.71 76.30 76.52 76.40 76.00 76.01 76.10 76.17 76.08 76.11
74.90 75.49 75.43 75.54 75.68 75.93 76.43 76.50 76.85 76.26 76.35 76.93 76.94 75.59 76.88 76.94 76.73 76.88 76.38 76.85 76.61 76.45
69.98 70.37 72.45 73.99 74.20 74.42 74.81 76.28 76.40 76.14 76.07 76.05 74.87 62.59 64.42 70.67 76.92 76.91 76.60 76.12 76.63 77.05
68.19 67.26 68.10 69.07 71.19 72.67 73.11 73.81 73.92 74.87 74.41 71.58 70.66 59.45 61.98 65.06 76.08 76.78 76.34 76.26 76.53 76.41
67.02 66.87 66.09 66.73 67.20 68.82 71.53 72.43 73.23 70.15 70.14 68.04 63.27 56.85 59.50 65.32 75.23 73.04 71.10 72.11 71.31 70.04
63.79 65.13 66.49 66.23 66.92 67.31 66.20 69.89 67.17 67.83 67.06 63.33 59.38 53.39 54.74 65.62 72.03 71.23 71.17 69.73 66.58 67.98
63.16 64.08 64.45 65.04 66.66 68.36 65.40 62.69 62.01 61.79 60.66 56.62 58.11 50.85 51.55 58.84 68.73 68.04 68.23 68.61 67.71 57.25
62.57 63.25 64.75 65.03 67.15 65.69 61.50 60.41 59.33 58.34 57.84 56.20 57.05 53.31 49.72 50.25 59.94 63.31 64.66 64.81 64.31 64.19

GFSNIL_sfc_wetblb_111.txt.gz
Wetbulb
76.37 74.89 75.20 75.55 73.36 74.67 76.31 74.85 78.19 77.23 77.61 77.36 77.68 77.77 78.13 76.79 76.55 78.28 76.43 76.79 78.43 76.20
76.40 75.87 75.91 75.98 76.85 76.14 77.64 76.44 77.13 76.94 76.84 77.16 77.59 77.78 78.37 76.11 76.75 77.75 77.18 77.04 77.46 76.37
75.61 76.22 76.10 76.57 75.96 76.60 72.59 77.74 77.89 76.90 76.70 76.79 77.21 77.94 78.29 78.16 77.65 77.11 76.17 75.42 78.21 77.24
75.11 75.20 75.96 75.87 76.13 76.79 76.98 77.03 77.23 77.47 77.08 76.92 77.01 77.37 77.28 78.32 77.85 76.56 76.75 76.86 76.51 76.32
76.11 75.64 74.58 75.08 75.73 76.94 76.80 77.06 77.20 77.60 77.16 76.85 76.82 78.10 77.14 76.32 76.57 76.39 75.43 76.03 76.19 75.48
76.64 75.03 74.96 74.91 75.32 76.32 77.11 77.21 76.77 76.88 77.23 77.55 77.07 77.70 77.59 77.17 76.86 76.40 76.44 76.29 76.79 75.83
76.42 75.84 75.20 76.01 75.66 75.66 76.54 76.64 76.88 77.20 76.85 76.89 77.08 77.27 76.79 76.60 76.60 76.54 76.21 76.22 76.15 76.54
76.40 77.25 76.97 76.52 76.47 75.84 76.00 76.38 76.45 76.64 76.67 76.70 76.15 74.50 74.93 76.79 76.69 76.72 76.25 76.56 76.62 76.70
74.71 73.09 75.75 75.77 74.34 76.46 75.98 76.12 76.23 76.00 76.16 76.41 71.11 62.64 63.27 69.46 75.99 76.59 76.34 75.94 76.67 76.60
71.14 68.80 69.70 70.63 73.44 74.56 74.04 75.26 75.11 75.15 73.39 71.55 67.67 57.78 60.00 65.25 74.24 76.42 76.09 76.56 76.38 76.32
68.23 67.07 67.07 67.25 67.36 68.22 70.67 73.21 73.64 71.50 70.16 68.07 62.15 55.41 57.22 61.55 75.83 73.72 73.76 73.42 73.41 72.67
68.11 68.17 67.92 66.13 65.67 67.18 69.07 67.97 68.49 68.46 65.20 63.05 58.44 52.86 55.05 65.25 74.08 72.83 71.09 67.26 65.47 67.62
65.73 65.82 67.45 69.06 69.26 69.99 67.72 65.60 63.96 60.42 60.88 57.80 58.13 50.88 51.76 59.16 70.14 70.57 69.89 70.26 62.98 56.76
65.89 66.43 66.66 67.50 67.97 65.48 62.42 62.10 61.24 57.97 57.21 55.93 56.41 52.54 50.38 50.90 60.37 58.96 64.19 67.04 66.35 63.11

GFSNIL_sfc_wetblb_114.txt.gz
Wetbulb
76.43 75.46 75.57 77.35 74.63 73.22 73.01 76.89 77.94 77.52 77.94 77.96 78.21 78.10 79.08 78.26 77.43 78.05 77.87 78.59 78.27 76.47
77.56 77.15 77.56 76.94 71.79 74.02 76.65 76.04 77.45 78.07 77.74 78.04 77.63 79.11 78.99 77.64 78.12 76.17 78.57 77.18 78.10 77.03
76.48 77.23 78.24 78.42 76.52 75.74 75.29 72.48 71.21 76.40 77.39 76.97 77.20 79.11 78.48 77.10 76.53 77.73 77.73 76.32 75.85 77.97
75.22 75.80 77.29 77.07 77.79 77.89 72.93 70.78 75.64 77.75 77.85 77.58 78.01 78.29 77.98 77.92 76.80 75.66 77.43 77.47 76.94 76.64
75.61 76.04 75.73 76.40 76.98 76.87 77.11 76.48 76.45 78.00 78.73 78.47 78.44 77.27 78.45 77.39 76.20 76.01 75.72 76.58 76.84 76.45
74.77 75.31 76.48 76.03 76.98 77.74 77.59 78.32 77.18 77.47 78.28 77.55 77.51 77.10 76.70 77.59 77.52 76.86 76.73 76.16 75.53 73.72
75.34 73.64 73.68 75.70 77.04 76.79 78.20 77.19 77.02 76.91 77.07 77.97 76.67 76.73 76.52 76.51 75.98 77.13 76.45 77.20 76.66 76.92
73.50 73.05 73.97 73.39 75.07 77.71 76.57 77.51 77.12 76.29 76.44 76.81 72.95 68.12 68.52 71.17 73.40 75.27 75.27 76.54 75.11 76.06
73.95 73.79 71.71 72.02 72.68 75.69 77.28 76.60 76.93 76.25 75.39 71.58 65.95 61.49 63.03 67.91 72.96 74.17 73.05 74.52 75.48 72.69
71.89 70.93 70.73 70.17 71.16 69.99 74.04 75.17 73.95 73.13 71.16 65.75 61.70 56.79 58.82 64.66 74.06 76.05 75.11 73.99 73.89 72.76
69.55 68.29 67.71 67.53 67.76 68.73 69.92 70.96 69.17 68.95 66.97 63.71 57.47 54.86 57.04 62.68 74.89 74.72 72.58 71.09 72.85 67.87
69.50 68.33 67.05 65.79 66.46 67.73 67.05 65.09 63.94 63.18 60.55 60.42 53.55 52.74 54.70 64.07 74.74 70.26 66.18 63.92 63.57 64.18
66.97 68.10 68.81 68.31 67.62 67.51 65.46 61.90 60.06 58.61 57.96 55.73 51.71 51.25 52.29 59.59 67.90 69.54 66.98 62.25 58.98 56.48
64.84 65.19 66.02 66.14 66.81 65.19 63.83 61.42 60.96 58.32 56.51 53.66 53.24 49.69 50.39 50.89 57.03 60.96 60.68 61.87 61.88 58.38

GFSNIL_sfc_wetblb_117.txt.gz
Wetbulb
70.54 69.68 71.44 71.69 70.84 70.08 71.08 71.76 72.82 73.26 73.31 73.44 73.89 73.13 73.44 72.52 72.60 72.30 72.53 72.42 71.88 72.50
72.57 72.15 71.32 72.15 70.00 70.73 73.17 74.35 72.11 72.16 73.24 73.09 73.74 73.48 73.59 72.38 72.16 71.98 72.67 71.83 71.63 71.79
72.22 72.54 72.66 72.50 69.22 71.88 71.57 69.43 67.48 66.48 70.08 72.95 73.56 74.29 73.26 72.12 70.90 72.19 72.18 72.10 71.46 72.17
72.16 72.67 72.55 72.88 72.65 72.74 70.62 67.45 66.54 67.68 71.22 72.63 72.64 73.04 72.80 72.31 71.95 71.66 71.45 72.10 71.83 71.56
72.03 71.64 72.59 71.96 72.55 72.34 68.24 68.62 72.26 72.80 73.08 72.92 73.37 73.68 73.08 72.87 72.48 71.61 71.38 71.87 71.44 71.19
71.44 71.65 71.66 72.08 71.85 72.58 72.21 72.39 73.36 73.06 73.44 73.43 73.31 72.94 72.64 72.71 72.61 72.45 71.90 71.01 71.34 72.07
70.02 70.04 70.87 71.65 71.90 72.25 73.09 72.88 72.99 73.09 73.07 72.94 71.87 71.28 72.20 72.35 72.74 72.09 72.28 72.09 72.45 71.91
70.42 70.94 70.90 72.12 71.55 71.92 72.71 72.63 72.23 72.05 71.17 68.43 66.54 65.35 67.41 71.98 70.66 70.84 69.49 68.80 72.53 69.32
69.47 69.52 69.28 69.55 70.18 71.43 71.46 71.09 70.92 70.01 66.70 64.09 62.10 62.10 61.77 66.63 69.53 70.92 69.81 68.53 69.80 67.98
67.95 67.00 66.82 68.41 68.74 69.83 70.89 70.80 68.68 65.48 61.00 56.56 55.63 57.46 58.77 64.30 68.90 70.23 67.66 68.20 69.04 64.08
67.08 66.49 66.33 66.28 68.13 69.40 68.90 67.23 64.88 62.87 58.09 53.01 52.41 55.20 57.70 63.70 69.42 64.17 64.26 64.56 62.54 59.17
66.15 65.16 65.64 66.46 66.55 64.74 62.75 60.91 60.53 57.97 54.34 50.98 49.70 53.63 57.94 66.60 65.98 61.55 58.61 58.27 58.11 55.81
66.61 65.84 65.36 64.82 65.87 64.30 61.91 59.60 58.41 55.82 52.51 52.02 49.03 52.04 55.17 60.77 65.59 59.46 55.92 54.85 53.76 55.99
64.90 64.86 65.09 65.33 64.34 62.33 59.07 56.88 55.07 53.30 51.82 51.16 50.71 50.01 51.54 54.20 56.99 58.78 58.08 54.02 52.42 52.89